Wetterdaten: Dienstag, 10.03.2020
Datum Zeit Temp. Aussen Temp. o. S. Temp +5cm Feuchte Auss Luftdruck Regen Sonnenschein Regendauer Solar Windben Empfang
10.03.2020 00:00 7,8 C 7,2 C 6,7 C 80 % 1012,8 hPa 0,0 l/m 0 min 0 min 0 W/m 25,7 km/h (4 Bft) 97,87 %
10.03.2020 00:02 7,8 C 7,2 C 6,7 C 80 % 1012,7 hPa 0,0 l/m 0 min 0 min 0 W/m 19,3 km/h (3 Bft) 97,50 %
10.03.2020 00:04 7,8 C 7,2 C 6,7 C 80 % 1012,6 hPa 0,0 l/m 0 min 0 min 0 W/m 29,0 km/h (5 Bft) 97,87 %
10.03.2020 00:08 7,8 C 7,2 C 6,7 C 80 % 1012,5 hPa 0,0 l/m 0 min 0 min 0 W/m 29,0 km/h (5 Bft) 96,81 %
10.03.2020 00:10 7,8 C 7,2 C 6,7 C 80 % 1012,4 hPa 0,0 l/m 0 min 0 min 0 W/m 25,7 km/h (4 Bft) 97,87 %
10.03.2020 00:12 7,8 C 7,2 C 6,7 C 79 % 1012,3 hPa 0,0 l/m 0 min 0 min 0 W/m 25,7 km/h (4 Bft) 97,83 %
10.03.2020 00:14 7,8 C 7,2 C 6,7 C 79 % 1012,0 hPa 0,0 l/m 0 min 0 min 0 W/m 6,4 km/h (2 Bft) 97,87 %
10.03.2020 00:16 7,8 C 7,2 C 6,7 C 79 % 1012,1 hPa 0,0 l/m 0 min 0 min 0 W/m 25,7 km/h (4 Bft) 95,74 %
10.03.2020 00:18 7,8 C 7,2 C 6,7 C 79 % 1012,0 hPa 0,0 l/m 0 min 0 min 0 W/m 25,7 km/h (4 Bft) 97,87 %
10.03.2020 00:20 7,8 C 7,2 C 6,7 C 79 % 1012,1 hPa 0,0 l/m 0 min 0 min 0 W/m 22,5 km/h (4 Bft) 95,74 %
10.03.2020 00:22 7,8 C 7,2 C 6,7 C 79 % 1012,2 hPa 0,0 l/m 0 min 0 min 0 W/m 29,0 km/h (5 Bft) 100,00 %
10.03.2020 00:24 7,8 C 7,2 C 6,7 C 79 % 1012,2 hPa 0,0 l/m 0 min 0 min 0 W/m 22,5 km/h (4 Bft) 95,65 %
10.03.2020 00:26 7,8 C 7,2 C 6,7 C 79 % 1012,4 hPa 0,0 l/m 0 min 0 min 0 W/m 29,0 km/h (5 Bft) 95,74 %
10.03.2020 00:28 7,8 C 7,2 C 6,7 C 79 % 1012,6 hPa 0,0 l/m 0 min 0 min 0 W/m 12,9 km/h (3 Bft) 97,87 %
10.03.2020 00:30 7,8 C 7,2 C 6,7 C 79 % 1012,6 hPa 0,0 l/m 0 min 0 min 0 W/m 32,2 km/h (5 Bft) 95,74 %
10.03.2020 00:32 7,8 C 7,2 C 6,7 C 79 % 1012,5 hPa 0,0 l/m 0 min 0 min 0 W/m 25,7 km/h (4 Bft) 95,74 %
10.03.2020 00:34 7,8 C 7,2 C 6,7 C 79 % 1012,4 hPa 0,0 l/m 0 min 0 min 0 W/m 19,3 km/h (3 Bft) 95,74 %
10.03.2020 00:36 7,9 C 7,2 C 6,7 C 79 % 1012,4 hPa 0,0 l/m 0 min 0 min 0 W/m 12,9 km/h (3 Bft) 95,65 %
10.03.2020 00:38 7,9 C 7,2 C 6,7 C 79 % 1012,4 hPa 0,0 l/m 0 min 0 min 0 W/m 29,0 km/h (5 Bft) 97,87 %
10.03.2020 00:40 7,9 C 7,2 C 6,7 C 79 % 1012,4 hPa 0,0 l/m 0 min 0 min 0 W/m 45,1 km/h (6 Bft) 97,87 %
10.03.2020 00:42 7,9 C 7,2 C 6,7 C 79 % 1012,4 hPa 0,0 l/m 0 min 0 min 0 W/m 32,2 km/h (5 Bft) 93,62 %
10.03.2020 00:44 7,9 C 7,2 C 6,7 C 79 % 1012,3 hPa 0,0 l/m 0 min 0 min 0 W/m 29,0 km/h (5 Bft) 97,87 %
10.03.2020 00:46 7,9 C 7,2 C 6,7 C 79 % 1012,2 hPa 0,0 l/m 0 min 0 min 0 W/m 22,5 km/h (4 Bft) 95,74 %
10.03.2020 00:48 7,9 C 7,2 C 6,7 C 79 % 1012,1 hPa 0,0 l/m 0 min 0 min 0 W/m 22,5 km/h (4 Bft) 95,65 %
10.03.2020 00:50 7,9 C 7,2 C 6,7 C 79 % 1012,1 hPa 0,0 l/m 0 min 0 min 0 W/m 25,7 km/h (4 Bft) 95,74 %
10.03.2020 00:52 7,9 C 7,2 C 6,7 C 79 % 1012,1 hPa 0,0 l/m 0 min 0 min 0 W/m 19,3 km/h (3 Bft) 95,74 %
10.03.2020 00:54 7,9 C 7,2 C 6,7 C 79 % 1012,1 hPa 0,0 l/m 0 min 0 min 0 W/m 29,0 km/h (5 Bft) 95,74 %
10.03.2020 00:56 7,9 C 7,2 C 6,7 C 79 % 1012,0 hPa 0,0 l/m 0 min 0 min 0 W/m 22,5 km/h (4 Bft) 95,74 %
10.03.2020 00:58 7,9 C 7,2 C 6,7 C 80 % 1011,9 hPa 0,0 l/m 0 min 0 min 0 W/m 16,1 km/h (3 Bft) 95,65 %
10.03.2020 01:00 7,9 C 7,2 C 6,7 C 80 % 1011,9 hPa 0,0 l/m 0 min 0 min 0 W/m 29,0 km/h (5 Bft) 95,74 %
10.03.2020 01:02 7,9 C 7,2 C 6,7 C 80 % 1011,8 hPa 0,0 l/m 0 min 0 min 0 W/m 19,3 km/h (3 Bft) 93,62 %
10.03.2020 01:04 7,9 C 7,2 C 6,7 C 80 % 1011,8 hPa 0,0 l/m 0 min 2 min 0 W/m 29,0 km/h (5 Bft) 95,74 %
10.03.2020 01:06 7,9 C 7,2 C 6,7 C 80 % 1011,7 hPa 0,0 l/m 0 min 0 min 0 W/m 38,6 km/h (5 Bft) 93,62 %
10.03.2020 01:08 7,9 C 7,2 C 6,7 C 80 % 1011,7 hPa 0,0 l/m 0 min 0 min 0 W/m 25,7 km/h (4 Bft) 95,74 %
10.03.2020 01:10 7,9 C 7,2 C 6,7 C 80 % 1011,5 hPa 0,0 l/m 0 min 0 min 0 W/m 29,0 km/h (5 Bft) 95,65 %
10.03.2020 01:12 7,9 C 7,2 C 6,7 C 80 % 1011,4 hPa 0,0 l/m 0 min 2 min 0 W/m 19,3 km/h (3 Bft) 89,36 %
10.03.2020 01:14 7,9 C 6,7 C 6,1 C 81 % 1011,4 hPa 0,0 l/m 0 min 2 min 0 W/m 32,2 km/h (5 Bft) 59,09 %
10.03.2020 01:16 7,9 C 6,7 C 6,1 C 81 % 1011,4 hPa 0,0 l/m 0 min 2 min 0 W/m 25,7 km/h (4 Bft) 95,74 %
10.03.2020 01:18 7,9 C 6,1 C 5,6 C 81 % 1011,4 hPa 0,0 l/m 0 min 2 min 0 W/m 32,2 km/h (5 Bft) 93,62 %
10.03.2020 01:20 7,9 C 6,1 C 5,6 C 82 % 1011,3 hPa 0,0 l/m 0 min 2 min 0 W/m 16,1 km/h (3 Bft) 95,74 %
10.03.2020 01:22 7,9 C 6,1 C 5,6 C 82 % 1011,0 hPa 0,0 l/m 0 min 2 min 0 W/m 19,3 km/h (3 Bft) 95,65 %
10.03.2020 01:24 7,9 C 6,1 C 5,6 C 82 % 1010,9 hPa 0,0 l/m 0 min 2 min 0 W/m 16,1 km/h (3 Bft) 93,62 %
10.03.2020 01:26 7,9 C 6,1 C 5,0 C 82 % 1011,0 hPa 0,0 l/m 0 min 2 min 0 W/m 25,7 km/h (4 Bft) 95,74 %
10.03.2020 01:28 7,9 C 5,6 C 5,0 C 83 % 1011,0 hPa 0,0 l/m 0 min 2 min 0 W/m 19,3 km/h (3 Bft) 97,87 %
10.03.2020 01:30 7,8 C 5,6 C 5,0 C 83 % 1011,0 hPa 0,0 l/m 0 min 2 min 0 W/m 22,5 km/h (4 Bft) 97,87 %
10.03.2020 01:32 7,8 C 5,6 C 5,0 C 83 % 1011,1 hPa 0,0 l/m 0 min 2 min 0 W/m 32,2 km/h (5 Bft) 97,87 %
10.03.2020 01:34 7,8 C 5,6 C 5,0 C 83 % 1011,0 hPa 0,0 l/m 0 min 2 min 0 W/m 29,0 km/h (5 Bft) 97,83 %
10.03.2020 01:36 7,7 C 5,6 C 5,0 C 84 % 1010,9 hPa 0,2 l/m 0 min 2 min 0 W/m 29,0 km/h (5 Bft) 97,87 %
10.03.2020 01:38 7,7 C 5,6 C 5,0 C 84 % 1010,9 hPa 0,0 l/m 0 min 2 min 0 W/m 38,6 km/h (5 Bft) 97,87 %
10.03.2020 01:40 7,7 C 5,6 C 5,0 C 84 % 1010,7 hPa 0,0 l/m 0 min 2 min 0 W/m 16,1 km/h (3 Bft) 95,74 %
10.03.2020 01:42 7,7 C 5,6 C 5,0 C 84 % 1010,7 hPa 0,0 l/m 0 min 2 min 0 W/m 25,7 km/h (4 Bft) 97,87 %
10.03.2020 01:44 7,6 C 5,6 C 5,0 C 84 % 1010,6 hPa 0,0 l/m 0 min 2 min 0 W/m 38,6 km/h (5 Bft) 97,87 %
10.03.2020 01:46 7,6 C 5,6 C 5,0 C 85 % 1010,7 hPa 0,0 l/m 0 min 2 min 0 W/m 35,4 km/h (5 Bft) 100,00 %
10.03.2020 01:48 7,6 C 5,6 C 5,0 C 85 % 1010,6 hPa 0,0 l/m 0 min 2 min 0 W/m 32,2 km/h (5 Bft) 100,00 %
10.03.2020 01:50 7,6 C 5,6 C 5,0 C 85 % 1010,7 hPa 0,0 l/m 0 min 2 min 0 W/m 35,4 km/h (5 Bft) 97,87 %
10.03.2020 01:52 7,6 C 5,6 C 5,0 C 85 % 1010,8 hPa 0,0 l/m 0 min 2 min 0 W/m 32,2 km/h (5 Bft) 100,00 %
10.03.2020 01:54 7,6 C 5,6 C 5,0 C 85 % 1010,7 hPa 0,0 l/m 0 min 2 min 0 W/m 22,5 km/h (4 Bft) 100,00 %
10.03.2020 01:56 7,5 C 5,6 C 4,4 C 85 % 1010,7 hPa 0,0 l/m 0 min 2 min 0 W/m 35,4 km/h (5 Bft) 97,87 %
10.03.2020 01:58 7,5 C 5,6 C 5,0 C 85 % 1010,7 hPa 0,0 l/m 0 min 2 min 0 W/m 35,4 km/h (5 Bft) 100,00 %
10.03.2020 02:00 7,5 C 5,6 C 5,0 C 85 % 1010,5 hPa 0,0 l/m 0 min 2 min 0 W/m 29,0 km/h (5 Bft) 100,00 %
10.03.2020 02:02 7,4 C 5,6 C 4,4 C 85 % 1010,5 hPa 0,0 l/m 0 min 2 min 0 W/m 35,4 km/h (5 Bft) 100,00 %
10.03.2020 02:04 7,4 C 5,6 C 4,4 C 85 % 1010,5 hPa 0,0 l/m 0 min 2 min 0 W/m 45,1 km/h (6 Bft) 100,00 %
10.03.2020 02:06 7,4 C 5,6 C 4,4 C 85 % 1010,5 hPa 0,0 l/m 0 min 2 min 0 W/m 29,0 km/h (5 Bft) 97,87 %
10.03.2020 02:08 7,4 C 5,6 C 4,4 C 86 % 1010,5 hPa 0,0 l/m 0 min 2 min 0 W/m 22,5 km/h (4 Bft) 100,00 %
10.03.2020 02:10 7,4 C 5,6 C 4,4 C 86 % 1010,5 hPa 0,0 l/m 0 min 2 min 0 W/m 19,3 km/h (3 Bft) 100,00 %
10.03.2020 02:12 7,4 C 5,6 C 4,4 C 86 % 1010,6 hPa 0,0 l/m 0 min 2 min 0 W/m 25,7 km/h (4 Bft) 100,00 %
10.03.2020 02:14 7,4 C 5,6 C 4,4 C 86 % 1010,4 hPa 0,0 l/m 0 min 2 min 0 W/m 35,4 km/h (5 Bft) 100,00 %
10.03.2020 02:16 7,3 C 5,0 C 4,4 C 86 % 1010,3 hPa 0,0 l/m 0 min 2 min 0 W/m 25,7 km/h (4 Bft) 97,87 %
10.03.2020 02:18 7,3 C 5,0 C 4,4 C 86 % 1010,4 hPa 0,0 l/m 0 min 2 min 0 W/m 32,2 km/h (5 Bft) 97,87 %
10.03.2020 02:20 7,3 C 5,0 C 4,4 C 87 % 1010,5 hPa 0,2 l/m 0 min 2 min 0 W/m 19,3 km/h (3 Bft) 100,00 %
10.03.2020 02:22 7,3 C 5,0 C 4,4 C 87 % 1010,4 hPa 0,0 l/m 0 min 2 min 0 W/m 19,3 km/h (3 Bft) 97,87 %
10.03.2020 02:24 7,3 C 5,0 C 4,4 C 87 % 1010,5 hPa 0,0 l/m 0 min 2 min 0 W/m 38,6 km/h (5 Bft) 100,00 %
10.03.2020 02:26 7,3 C 5,0 C 4,4 C 87 % 1010,4 hPa 0,2 l/m 0 min 2 min 0 W/m 32,2 km/h (5 Bft) 100,00 %
10.03.2020 02:28 7,3 C 5,0 C 4,4 C 88 % 1010,2 hPa 0,0 l/m 0 min 2 min 0 W/m 16,1 km/h (3 Bft) 100,00 %
10.03.2020 02:30 7,2 C 5,0 C 4,4 C 88 % 1010,2 hPa 0,0 l/m 0 min 2 min 0 W/m 29,0 km/h (5 Bft) 100,00 %
10.03.2020 02:32 7,2 C 5,0 C 4,4 C 88 % 1010,0 hPa 0,0 l/m 0 min 2 min 0 W/m 22,5 km/h (4 Bft) 95,65 %
10.03.2020 02:34 7,2 C 5,0 C 4,4 C 88 % 1010,0 hPa 0,2 l/m 0 min 2 min 0 W/m 25,7 km/h (4 Bft) 100,00 %
10.03.2020 02:36 7,2 C 5,0 C 4,4 C 89 % 1009,9 hPa 0,0 l/m 0 min 2 min 0 W/m 25,7 km/h (4 Bft) 91,49 %
10.03.2020 02:38 7,1 C 5,0 C 4,4 C 89 % 1009,9 hPa 0,0 l/m 0 min 2 min 0 W/m 25,7 km/h (4 Bft) 51,43 %
10.03.2020 02:40 7,1 C 5,0 C 4,4 C 89 % 1009,8 hPa 0,2 l/m 0 min 2 min 0 W/m 54,7 km/h (7 Bft) 100,00 %
10.03.2020 02:42 7,1 C 5,0 C 4,4 C 90 % 1009,6 hPa 0,0 l/m 0 min 2 min 0 W/m 29,0 km/h (5 Bft) 97,87 %
10.03.2020 02:44 7,0 C 5,0 C 4,4 C 90 % 1009,8 hPa 0,0 l/m 0 min 2 min 0 W/m 25,7 km/h (4 Bft) 97,83 %
10.03.2020 02:46 7,0 C 5,0 C 4,4 C 90 % 1009,7 hPa 0,0 l/m 0 min 2 min 0 W/m 22,5 km/h (4 Bft) 97,87 %
10.03.2020 02:48 6,9 C 5,0 C 4,4 C 90 % 1009,5 hPa 0,2 l/m 0 min 2 min 0 W/m 25,7 km/h (4 Bft) 97,87 %
10.03.2020 02:50 6,9 C 5,0 C 4,4 C 90 % 1009,6 hPa 0,0 l/m 0 min 2 min 0 W/m 32,2 km/h (5 Bft) 97,87 %
10.03.2020 02:52 6,9 C 5,0 C 4,4 C 91 % 1009,5 hPa 0,0 l/m 0 min 2 min 0 W/m 19,3 km/h (3 Bft) 97,87 %
10.03.2020 02:54 6,9 C 5,0 C 4,4 C 91 % 1009,5 hPa 0,2 l/m 0 min 2 min 0 W/m 29,0 km/h (5 Bft) 97,83 %
10.03.2020 02:56 6,8 C 5,0 C 4,4 C 91 % 1009,4 hPa 0,0 l/m 0 min 2 min 0 W/m 38,6 km/h (5 Bft) 97,87 %
10.03.2020 02:58 6,8 C 5,0 C 4,4 C 91 % 1009,5 hPa 0,0 l/m 0 min 2 min 0 W/m 25,7 km/h (4 Bft) 97,87 %
10.03.2020 03:00 6,8 C 5,0 C 4,4 C 91 % 1009,3 hPa 0,0 l/m 0 min 2 min 0 W/m 25,7 km/h (4 Bft) 95,74 %
10.03.2020 03:02 6,8 C 5,0 C 4,4 C 92 % 1009,3 hPa 0,0 l/m 0 min 2 min 0 W/m 25,7 km/h (4 Bft) 95,74 %
10.03.2020 03:04 6,7 C 5,0 C 4,4 C 92 % 1009,3 hPa 0,2 l/m 0 min 2 min 0 W/m 22,5 km/h (4 Bft) 95,74 %
10.03.2020 03:06 6,7 C 5,0 C 4,4 C 92 % 1009,1 hPa 0,0 l/m 0 min 2 min 0 W/m 25,7 km/h (4 Bft) 97,83 %
10.03.2020 03:08 6,7 C 5,0 C 4,4 C 92 % 1009,0 hPa 0,0 l/m 0 min 2 min 0 W/m 29,0 km/h (5 Bft) 97,87 %
10.03.2020 03:10 6,7 C 5,0 C 4,4 C 92 % 1009,0 hPa 0,2 l/m 0 min 2 min 0 W/m 41,8 km/h (6 Bft) 95,74 %
10.03.2020 03:12 6,7 C 5,0 C 4,4 C 92 % 1008,9 hPa 0,0 l/m 0 min 2 min 0 W/m 29,0 km/h (5 Bft) 95,74 %
10.03.2020 03:14 6,6 C 5,0 C 4,4 C 93 % 1008,9 hPa 0,0 l/m 0 min 2 min 0 W/m 29,0 km/h (5 Bft) 97,87 %
10.03.2020 03:16 6,6 C 5,0 C 4,4 C 93 % 1008,9 hPa 0,0 l/m 0 min 2 min 0 W/m 29,0 km/h (5 Bft) 93,62 %
10.03.2020 03:18 6,6 C 5,0 C 4,4 C 93 % 1008,7 hPa 0,2 l/m 0 min 2 min 0 W/m 41,8 km/h (6 Bft) 93,48 %
10.03.2020 03:20 6,6 C 5,0 C 4,4 C 93 % 1008,8 hPa 0,2 l/m 0 min 2 min 0 W/m 45,1 km/h (6 Bft) 95,74 %
10.03.2020 03:22 6,6 C 5,0 C 4,4 C 93 % 1008,7 hPa 0,0 l/m 0 min 2 min 0 W/m 25,7 km/h (4 Bft) 91,49 %
10.03.2020 03:24 6,6 C 5,0 C 4,4 C 93 % 1008,7 hPa 0,2 l/m 0 min 2 min 0 W/m 29,0 km/h (5 Bft) 91,49 %
10.03.2020 03:26 6,5 C 5,0 C 4,4 C 93 % 1008,5 hPa 0,0 l/m 0 min 2 min 0 W/m 35,4 km/h (5 Bft) 95,74 %
10.03.2020 03:28 6,5 C 5,0 C 4,4 C 93 % 1008,4 hPa 0,2 l/m 0 min 2 min 0 W/m 61,2 km/h (7 Bft) 95,74 %
10.03.2020 03:30 6,5 C 5,0 C 4,4 C 93 % 1008,0 hPa 0,0 l/m 0 min 2 min 0 W/m 35,4 km/h (5 Bft) 95,65 %
10.03.2020 03:32 6,4 C 5,0 C 4,4 C 93 % 1007,7 hPa 0,4 l/m 0 min 2 min 0 W/m 35,4 km/h (5 Bft) 93,62 %
10.03.2020 03:34 6,4 C 5,0 C 4,4 C 94 % 1007,5 hPa 0,0 l/m 0 min 2 min 0 W/m 29,0 km/h (5 Bft) 95,74 %
10.03.2020 03:36 6,4 C 5,0 C 4,4 C 94 % 1007,2 hPa 0,0 l/m 0 min 2 min 0 W/m 32,2 km/h (5 Bft) 95,74 %
10.03.2020 03:38 6,4 C 5,0 C 4,4 C 94 % 1007,2 hPa 0,2 l/m 0 min 2 min 0 W/m 29,0 km/h (5 Bft) 97,87 %
10.03.2020 03:40 6,3 C 5,0 C 4,4 C 94 % 1007,0 hPa 0,0 l/m 0 min 2 min 0 W/m 29,0 km/h (5 Bft) 97,87 %
10.03.2020 03:42 6,3 C 5,0 C 4,4 C 94 % 1007,1 hPa 0,2 l/m 0 min 2 min 0 W/m 25,7 km/h (4 Bft) 95,56 %
10.03.2020 03:44 6,3 C 5,0 C 4,4 C 94 % 1007,1 hPa 0,0 l/m 0 min 2 min 0 W/m 32,2 km/h (5 Bft) 97,87 %
10.03.2020 03:46 6,3 C 5,0 C 4,4 C 94 % 1007,2 hPa 0,0 l/m 0 min 2 min 0 W/m 29,0 km/h (5 Bft) 97,87 %
10.03.2020 03:48 6,3 C 5,0 C 4,4 C 94 % 1007,0 hPa 0,0 l/m 0 min 2 min 0 W/m 38,6 km/h (5 Bft) 95,74 %
10.03.2020 03:50 6,3 C 5,0 C 4,4 C 94 % 1006,8 hPa 0,0 l/m 0 min 2 min 0 W/m 38,6 km/h (5 Bft) 95,74 %
10.03.2020 03:52 6,3 C 5,0 C 4,4 C 94 % 1006,8 hPa 0,2 l/m 0 min 2 min 0 W/m 32,2 km/h (5 Bft) 95,74 %
10.03.2020 03:54 6,3 C 4,4 C 4,4 C 94 % 1006,7 hPa 0,0 l/m 0 min 2 min 0 W/m 29,0 km/h (5 Bft) 97,83 %
10.03.2020 03:56 6,2 C 4,4 C 4,4 C 94 % 1006,7 hPa 0,0 l/m 0 min 2 min 0 W/m 25,7 km/h (4 Bft) 97,87 %
10.03.2020 03:58 6,2 C 4,4 C 4,4 C 94 % 1006,7 hPa 0,2 l/m 0 min 2 min 0 W/m 35,4 km/h (5 Bft) 97,87 %
10.03.2020 04:00 6,2 C 4,4 C 4,4 C 94 % 1006,9 hPa 0,0 l/m 0 min 2 min 0 W/m 41,8 km/h (6 Bft) 97,87 %
10.03.2020 04:02 6,2 C 4,4 C 4,4 C 94 % 1006,8 hPa 0,0 l/m 0 min 2 min 0 W/m 45,1 km/h (6 Bft) 100,00 %
10.03.2020 04:07 6,1 C 4,4 C 4,4 C 94 % 1006,6 hPa 0,2 l/m 0 min 5 min 0 W/m 32,2 km/h (5 Bft) 100,00 %
10.03.2020 04:08 6,1 C 4,4 C 4,4 C 94 % 1006,6 hPa 0,0 l/m 0 min 1 min 0 W/m 29,0 km/h (5 Bft) 100,00 %
10.03.2020 04:10 6,1 C 4,4 C 4,4 C 94 % 1006,5 hPa 0,2 l/m 0 min 2 min 0 W/m 22,5 km/h (4 Bft) 100,00 %
10.03.2020 04:12 6,1 C 4,4 C 4,4 C 94 % 1006,5 hPa 0,0 l/m 0 min 2 min 0 W/m 25,7 km/h (4 Bft) 100,00 %
10.03.2020 04:14 6,1 C 4,4 C 4,4 C 94 % 1006,7 hPa 0,0 l/m 0 min 2 min 0 W/m 45,1 km/h (6 Bft) 97,87 %
10.03.2020 04:16 6,1 C 4,4 C 4,4 C 94 % 1006,7 hPa 0,0 l/m 0 min 2 min 0 W/m 29,0 km/h (5 Bft) 100,00 %
10.03.2020 04:18 6,1 C 4,4 C 4,4 C 95 % 1006,8 hPa 0,0 l/m 0 min 2 min 0 W/m 32,2 km/h (5 Bft) 100,00 %
10.03.2020 04:20 6,1 C 4,4 C 4,4 C 95 % 1006,7 hPa 0,2 l/m 0 min 2 min 0 W/m 29,0 km/h (5 Bft) 100,00 %
10.03.2020 04:22 6,1 C 4,4 C 4,4 C 95 % 1006,8 hPa 0,2 l/m 0 min 2 min 0 W/m 32,2 km/h (5 Bft) 100,00 %
10.03.2020 04:24 6,0 C 4,4 C 4,4 C 95 % 1006,6 hPa 0,0 l/m 0 min 2 min 0 W/m 22,5 km/h (4 Bft) 97,87 %
10.03.2020 04:26 6,0 C 4,4 C 4,4 C 95 % 1006,7 hPa 0,2 l/m 0 min 2 min 0 W/m 22,5 km/h (4 Bft) 97,87 %
10.03.2020 04:28 6,0 C 4,4 C 3,9 C 95 % 1006,6 hPa 0,0 l/m 0 min 2 min 0 W/m 35,4 km/h (5 Bft) 100,00 %
10.03.2020 04:30 6,0 C 4,4 C 3,9 C 95 % 1006,7 hPa 0,2 l/m 0 min 2 min 0 W/m 32,2 km/h (5 Bft) 100,00 %
10.03.2020 04:32 6,0 C 4,4 C 3,9 C 95 % 1006,6 hPa 0,0 l/m 0 min 2 min 0 W/m 22,5 km/h (4 Bft) 100,00 %
10.03.2020 04:34 6,0 C 4,4 C 3,9 C 95 % 1006,7 hPa 0,0 l/m 0 min 2 min 0 W/m 45,1 km/h (6 Bft) 97,87 %
10.03.2020 04:36 5,9 C 4,4 C 3,9 C 95 % 1006,6 hPa 0,0 l/m 0 min 2 min 0 W/m 12,9 km/h (3 Bft) 100,00 %
10.03.2020 04:41 5,9 C 4,4 C 3,9 C 95 % 1006,5 hPa 0,0 l/m 0 min 5 min 0 W/m 32,2 km/h (5 Bft) 96,36 %
10.03.2020 04:42 5,9 C 4,4 C 3,9 C 95 % 1006,5 hPa 0,0 l/m 0 min 1 min 0 W/m 25,7 km/h (4 Bft) 100,00 %
10.03.2020 04:44 5,9 C 4,4 C 3,9 C 95 % 1006,4 hPa 0,0 l/m 0 min 2 min 0 W/m 29,0 km/h (5 Bft) 100,00 %
10.03.2020 04:46 5,9 C 4,4 C 3,9 C 95 % 1006,4 hPa 0,2 l/m 0 min 2 min 0 W/m 32,2 km/h (5 Bft) 95,74 %
10.03.2020 04:48 5,9 C 4,4 C 3,9 C 95 % 1006,4 hPa 0,0 l/m 0 min 2 min 0 W/m 29,0 km/h (5 Bft) 95,74 %
10.03.2020 04:50 5,9 C 4,4 C 4,4 C 95 % 1006,3 hPa 0,0 l/m 0 min 2 min 0 W/m 22,5 km/h (4 Bft) 97,87 %
10.03.2020 04:52 5,9 C 4,4 C 4,4 C 95 % 1006,2 hPa 0,0 l/m 0 min 2 min 0 W/m 25,7 km/h (4 Bft) 95,65 %
10.03.2020 04:54 5,9 C 4,4 C 4,4 C 95 % 1006,3 hPa 0,2 l/m 0 min 2 min 0 W/m 29,0 km/h (5 Bft) 97,87 %
10.03.2020 04:56 5,9 C 4,4 C 4,4 C 95 % 1006,2 hPa 0,0 l/m 0 min 2 min 0 W/m 29,0 km/h (5 Bft) 97,87 %
10.03.2020 04:58 5,9 C 4,4 C 4,4 C 95 % 1006,4 hPa 0,0 l/m 0 min 2 min 0 W/m 32,2 km/h (5 Bft) 97,87 %
10.03.2020 05:00 5,9 C 4,4 C 4,4 C 95 % 1006,3 hPa 0,0 l/m 0 min 2 min 0 W/m 22,5 km/h (4 Bft) 97,87 %
10.03.2020 05:02 5,9 C 4,4 C 4,4 C 95 % 1006,3 hPa 0,0 l/m 0 min 2 min 0 W/m 29,0 km/h (5 Bft) 97,83 %
10.03.2020 05:04 5,9 C 4,4 C 4,4 C 95 % 1006,3 hPa 0,0 l/m 0 min 2 min 0 W/m 29,0 km/h (5 Bft) 97,87 %
10.03.2020 05:06 5,9 C 4,4 C 4,4 C 95 % 1006,2 hPa 0,2 l/m 0 min 2 min 0 W/m 38,6 km/h (5 Bft) 97,87 %
10.03.2020 05:08 5,9 C 4,4 C 4,4 C 95 % 1006,2 hPa 0,0 l/m 0 min 2 min 0 W/m 25,7 km/h (4 Bft) 52,38 %
10.03.2020 05:10 5,9 C 4,4 C 4,4 C 95 % 1006,2 hPa 0,0 l/m 0 min 2 min 0 W/m 29,0 km/h (5 Bft) 97,87 %
10.03.2020 05:12 6,0 C 5,0 C 4,4 C 95 % 1006,2 hPa 0,2 l/m 0 min 2 min 0 W/m 32,2 km/h (5 Bft) 95,74 %
10.03.2020 05:14 6,0 C 5,0 C 4,4 C 95 % 1006,1 hPa 0,0 l/m 0 min 2 min 0 W/m 38,6 km/h (5 Bft) 97,83 %
10.03.2020 05:16 6,0 C 5,0 C 4,4 C 95 % 1006,3 hPa 0,0 l/m 0 min 2 min 0 W/m 22,5 km/h (4 Bft) 95,74 %
10.03.2020 05:18 6,0 C 5,0 C 4,4 C 96 % 1006,3 hPa 0,0 l/m 0 min 2 min 0 W/m 35,4 km/h (5 Bft) 97,87 %
10.03.2020 05:20 6,0 C 5,0 C 4,4 C 96 % 1006,2 hPa 0,0 l/m 0 min 2 min 0 W/m 19,3 km/h (3 Bft) 95,74 %
10.03.2020 05:22 6,1 C 5,0 C 4,4 C 96 % 1006,2 hPa 0,0 l/m 0 min 2 min 0 W/m 16,1 km/h (3 Bft) 97,87 %
10.03.2020 05:24 6,1 C 5,0 C 4,4 C 96 % 1006,3 hPa 0,0 l/m 0 min 2 min 0 W/m 22,5 km/h (4 Bft) 97,87 %
10.03.2020 05:26 6,1 C 5,0 C 4,4 C 96 % 1006,2 hPa 0,0 l/m 0 min 2 min 0 W/m 22,5 km/h (4 Bft) 95,65 %
10.03.2020 05:28 6,1 C 5,0 C 4,4 C 96 % 1006,3 hPa 0,0 l/m 0 min 2 min 0 W/m 22,5 km/h (4 Bft) 97,87 %
10.03.2020 05:30 6,1 C 5,0 C 4,4 C 96 % 1006,3 hPa 0,0 l/m 0 min 2 min 0 W/m 22,5 km/h (4 Bft) 97,87 %
10.03.2020 05:32 6,1 C 5,0 C 4,4 C 96 % 1006,3 hPa 0,0 l/m 0 min 2 min 0 W/m 32,2 km/h (5 Bft) 97,87 %
10.03.2020 05:34 6,1 C 5,0 C 4,4 C 96 % 1006,3 hPa 0,0 l/m 0 min 2 min 0 W/m 25,7 km/h (4 Bft) 97,87 %
10.03.2020 05:36 6,1 C 5,0 C 4,4 C 96 % 1006,3 hPa 0,0 l/m 0 min 2 min 0 W/m 29,0 km/h (5 Bft) 95,74 %
10.03.2020 05:38 6,1 C 5,0 C 4,4 C 96 % 1006,1 hPa 0,0 l/m 0 min 2 min 0 W/m 22,5 km/h (4 Bft) 95,65 %
10.03.2020 05:40 6,2 C 5,0 C 4,4 C 96 % 1006,2 hPa 0,0 l/m 0 min 2 min 0 W/m 38,6 km/h (5 Bft) 97,87 %
10.03.2020 05:42 6,2 C 5,0 C 4,4 C 96 % 1006,1 hPa 0,2 l/m 0 min 2 min 0 W/m 35,4 km/h (5 Bft) 97,87 %
10.03.2020 05:44 6,2 C 5,0 C 4,4 C 96 % 1006,0 hPa 0,0 l/m 0 min 2 min 0 W/m 16,1 km/h (3 Bft) 97,87 %
10.03.2020 05:46 6,2 C 5,0 C 4,4 C 96 % 1006,0 hPa 0,0 l/m 0 min 2 min 0 W/m 29,0 km/h (5 Bft) 95,74 %
10.03.2020 05:48 6,3 C 5,0 C 5,0 C 96 % 1006,0 hPa 0,0 l/m 0 min 2 min 0 W/m 22,5 km/h (4 Bft) 93,62 %
10.03.2020 05:50 6,3 C 5,0 C 5,0 C 96 % 1006,1 hPa 0,0 l/m 0 min 2 min 0 W/m 25,7 km/h (4 Bft) 97,83 %
10.03.2020 05:52 6,3 C 5,0 C 5,0 C 96 % 1006,2 hPa 0,0 l/m 0 min 2 min 0 W/m 29,0 km/h (5 Bft) 93,62 %
10.03.2020 05:54 6,4 C 5,6 C 5,0 C 96 % 1006,1 hPa 0,0 l/m 0 min 2 min 0 W/m 32,2 km/h (5 Bft) 91,49 %
10.03.2020 05:56 6,4 C 5,6 C 5,0 C 96 % 1006,1 hPa 0,0 l/m 0 min 2 min 0 W/m 35,4 km/h (5 Bft) 95,74 %
10.03.2020 05:58 6,4 C 5,6 C 5,0 C 97 % 1006,0 hPa 0,0 l/m 0 min 2 min 0 W/m 32,2 km/h (5 Bft) 95,74 %
10.03.2020 06:00 6,5 C 5,6 C 5,0 C 97 % 1005,8 hPa 0,0 l/m 0 min 2 min 0 W/m 29,0 km/h (5 Bft) 95,74 %
10.03.2020 06:02 6,5 C 5,6 C 5,0 C 97 % 1005,9 hPa 0,0 l/m 0 min 2 min 0 W/m 45,1 km/h (6 Bft) 91,30 %
10.03.2020 06:04 6,5 C 5,6 C 5,0 C 97 % 1005,6 hPa 0,0 l/m 0 min 2 min 0 W/m 22,5 km/h (4 Bft) 95,74 %
10.03.2020 06:08 6,6 C 5,6 C 5,0 C 97 % 1005,7 hPa 0,0 l/m 0 min 4 min 0 W/m 25,7 km/h (4 Bft) 93,62 %
10.03.2020 06:10 6,6 C 5,6 C 5,0 C 97 % 1005,6 hPa 0,0 l/m 0 min 2 min 0 W/m 25,7 km/h (4 Bft) 95,74 %
10.03.2020 06:12 6,6 C 5,6 C 5,0 C 97 % 1005,6 hPa 0,0 l/m 0 min 2 min 0 W/m 22,5 km/h (4 Bft) 93,48 %
10.03.2020 06:14 6,6 C 5,6 C 5,0 C 97 % 1005,6 hPa 0,0 l/m 0 min 2 min 0 W/m 22,5 km/h (4 Bft) 93,62 %
10.03.2020 06:16 6,6 C 5,6 C 5,0 C 97 % 1005,6 hPa 0,0 l/m 0 min 2 min 0 W/m 22,5 km/h (4 Bft) 95,74 %
10.03.2020 06:18 6,6 C 5,6 C 5,0 C 97 % 1005,7 hPa 0,2 l/m 0 min 2 min 0 W/m 38,6 km/h (5 Bft) 95,74 %
10.03.2020 06:20 6,7 C 5,6 C 5,0 C 97 % 1005,5 hPa 0,0 l/m 0 min 2 min 0 W/m 29,0 km/h (5 Bft) 97,87 %
10.03.2020 06:22 6,7 C 5,6 C 5,0 C 97 % 1005,6 hPa 0,0 l/m 0 min 2 min 0 W/m 25,7 km/h (4 Bft) 97,87 %
10.03.2020 06:24 6,7 C 5,6 C 5,0 C 97 % 1005,7 hPa 0,0 l/m 0 min 2 min 0 W/m 29,0 km/h (5 Bft) 70,21 %
10.03.2020 06:26 6,7 C 5,6 C 5,0 C 97 % 1005,5 hPa 0,0 l/m 0 min 2 min 0 W/m 32,2 km/h (5 Bft) 82,05 %
10.03.2020 06:28 6,7 C 5,6 C 5,0 C 97 % 1005,4 hPa 0,0 l/m 0 min 2 min 0 W/m 25,7 km/h (4 Bft) 97,87 %
10.03.2020 06:30 6,7 C 5,6 C 5,0 C 97 % 1005,4 hPa 0,0 l/m 0 min 2 min 0 W/m 35,4 km/h (5 Bft) 97,87 %
10.03.2020 06:32 6,7 C 5,6 C 5,0 C 97 % 1005,5 hPa 0,0 l/m 0 min 2 min 0 W/m 22,5 km/h (4 Bft) 97,87 %
10.03.2020 06:34 6,8 C 5,6 C 5,0 C 97 % 1005,5 hPa 0,0 l/m 0 min 2 min 0 W/m 41,8 km/h (6 Bft) 95,74 %
10.03.2020 06:36 6,8 C 5,6 C 5,0 C 97 % 1005,4 hPa 0,0 l/m 0 min 2 min 0 W/m 25,7 km/h (4 Bft) 97,83 %
10.03.2020 06:38 6,8 C 5,6 C 5,0 C 97 % 1005,5 hPa 0,0 l/m 0 min 2 min 0 W/m 41,8 km/h (6 Bft) 100,00 %
10.03.2020 06:40 6,8 C 5,6 C 5,0 C 97 % 1005,6 hPa 0,0 l/m 0 min 2 min 0 W/m 32,2 km/h (5 Bft) 100,00 %
10.03.2020 06:42 6,8 C 5,6 C 5,0 C 97 % 1005,5 hPa 0,0 l/m 0 min 2 min 0 W/m 19,3 km/h (3 Bft) 100,00 %
10.03.2020 06:44 6,8 C 5,6 C 5,0 C 97 % 1005,5 hPa 0,0 l/m 0 min 2 min 0 W/m 25,7 km/h (4 Bft) 100,00 %
10.03.2020 06:46 6,8 C 5,6 C 5,0 C 97 % 1005,5 hPa 0,0 l/m 0 min 2 min 0 W/m 22,5 km/h (4 Bft) 100,00 %
10.03.2020 06:48 6,8 C 5,6 C 5,6 C 97 % 1005,6 hPa 0,0 l/m 0 min 2 min 0 W/m 35,4 km/h (5 Bft) 100,00 %
10.03.2020 06:50 6,8 C 5,6 C 5,6 C 97 % 1005,5 hPa 0,0 l/m 0 min 2 min 0 W/m 12,9 km/h (3 Bft) 100,00 %
10.03.2020 06:52 6,9 C 5,6 C 5,6 C 97 % 1005,5 hPa 0,0 l/m 0 min 2 min 0 W/m 19,3 km/h (3 Bft) 100,00 %
10.03.2020 06:54 6,9 C 6,1 C 5,6 C 97 % 1005,5 hPa 0,0 l/m 0 min 2 min 0 W/m 29,0 km/h (5 Bft) 100,00 %
10.03.2020 06:56 6,9 C 6,1 C 5,6 C 97 % 1005,5 hPa 0,0 l/m 0 min 2 min 0 W/m 12,9 km/h (3 Bft) 100,00 %
10.03.2020 06:58 6,9 C 6,1 C 5,6 C 97 % 1005,5 hPa 0,0 l/m 0 min 2 min 0 W/m 22,5 km/h (4 Bft) 100,00 %
10.03.2020 07:00 6,9 C 6,1 C 5,6 C 97 % 1005,4 hPa 0,0 l/m 0 min 2 min 0 W/m 22,5 km/h (4 Bft) 100,00 %
10.03.2020 07:02 7,0 C 6,1 C 5,6 C 97 % 1005,4 hPa 0,0 l/m 0 min 2 min 0 W/m 25,7 km/h (4 Bft) 100,00 %
10.03.2020 07:04 7,0 C 6,1 C 5,6 C 98 % 1005,6 hPa 0,0 l/m 0 min 2 min 0 W/m 22,5 km/h (4 Bft) 100,00 %
10.03.2020 07:06 7,1 C 6,1 C 5,6 C 98 % 1005,5 hPa 0,0 l/m 0 min 2 min 0 W/m 9,7 km/h (2 Bft) 100,00 %
10.03.2020 07:08 7,1 C 6,1 C 5,6 C 97 % 1005,5 hPa 0,0 l/m 0 min 2 min 0 W/m 16,1 km/h (3 Bft) 100,00 %
10.03.2020 07:10 7,1 C 6,1 C 5,6 C 97 % 1005,5 hPa 0,0 l/m 0 min 2 min 0 W/m 12,9 km/h (3 Bft) 97,83 %
10.03.2020 07:12 7,1 C 6,1 C 5,6 C 98 % 1005,8 hPa 0,0 l/m 0 min 2 min 0 W/m 38,6 km/h (5 Bft) 100,00 %
10.03.2020 07:14 7,2 C 6,1 C 5,6 C 98 % 1005,4 hPa 0,0 l/m 0 min 2 min 0 W/m 19,3 km/h (3 Bft) 100,00 %
10.03.2020 07:16 7,2 C 6,1 C 5,6 C 98 % 1005,4 hPa 0,0 l/m 0 min 2 min 0 W/m 12,9 km/h (3 Bft) 100,00 %
10.03.2020 07:18 7,2 C 6,1 C 5,6 C 98 % 1005,4 hPa 0,0 l/m 0 min 2 min 2 W/m 38,6 km/h (5 Bft) 100,00 %
10.03.2020 07:20 7,2 C 6,1 C 5,6 C 98 % 1005,4 hPa 0,0 l/m 0 min 2 min 5 W/m 16,1 km/h (3 Bft) 100,00 %
10.03.2020 07:22 7,3 C 6,1 C 5,6 C 98 % 1005,5 hPa 0,0 l/m 0 min 2 min 5 W/m 22,5 km/h (4 Bft) 100,00 %
10.03.2020 07:24 7,3 C 6,1 C 5,6 C 98 % 1005,3 hPa 0,0 l/m 0 min 2 min 5 W/m 9,7 km/h (2 Bft) 100,00 %
10.03.2020 07:26 7,3 C 6,1 C 5,6 C 98 % 1005,4 hPa 0,0 l/m 0 min 2 min 5 W/m 22,5 km/h (4 Bft) 100,00 %
10.03.2020 07:28 7,3 C 6,7 C 6,1 C 98 % 1005,3 hPa 0,0 l/m 0 min 2 min 7 W/m 38,6 km/h (5 Bft) 100,00 %
10.03.2020 07:30 7,3 C 6,7 C 6,1 C 98 % 1005,4 hPa 0,0 l/m 0 min 2 min 7 W/m 35,4 km/h (5 Bft) 100,00 %
10.03.2020 07:32 7,4 C 6,7 C 6,1 C 98 % 1005,4 hPa 0,0 l/m 0 min 2 min 7 W/m 3,2 km/h (1 Bft) 97,87 %
10.03.2020 07:34 7,4 C 6,7 C 6,1 C 98 % 1005,4 hPa 0,0 l/m 0 min 2 min 7 W/m 19,3 km/h (3 Bft) 100,00 %
10.03.2020 07:36 7,4 C 6,7 C 6,1 C 98 % 1005,4 hPa 0,0 l/m 0 min 2 min 7 W/m 6,4 km/h (2 Bft) 100,00 %
10.03.2020 07:38 7,4 C 6,7 C 6,1 C 98 % 1005,5 hPa 0,0 l/m 0 min 2 min 10 W/m 29,0 km/h (5 Bft) 100,00 %
10.03.2020 07:40 7,5 C 6,7 C 6,1 C 98 % 1005,4 hPa 0,0 l/m 0 min 2 min 12 W/m 19,3 km/h (3 Bft) 100,00 %
10.03.2020 07:42 7,5 C 6,7 C 6,1 C 98 % 1005,4 hPa 0,0 l/m 0 min 2 min 13 W/m 16,1 km/h (3 Bft) 100,00 %
10.03.2020 07:44 7,6 C 6,7 C 6,1 C 98 % 1005,5 hPa 0,0 l/m 0 min 2 min 11 W/m 16,1 km/h (3 Bft) 100,00 %
10.03.2020 07:46 7,6 C 6,7 C 6,1 C 98 % 1005,4 hPa 0,0 l/m 0 min 2 min 12 W/m 16,1 km/h (3 Bft) 100,00 %
10.03.2020 07:48 7,6 C 6,7 C 6,1 C 98 % 1005,5 hPa 0,0 l/m 0 min 2 min 12 W/m 16,1 km/h (3 Bft) 97,87 %
10.03.2020 07:50 7,6 C 6,7 C 6,1 C 98 % 1005,7 hPa 0,0 l/m 0 min 2 min 12 W/m 25,7 km/h (4 Bft) 52,17 %
10.03.2020 07:52 7,6 C 6,7 C 6,1 C 98 % 1005,5 hPa 0,0 l/m 0 min 2 min 11 W/m 22,5 km/h (4 Bft) 91,49 %
10.03.2020 07:54 7,6 C 6,7 C 6,1 C 98 % 1005,6 hPa 0,0 l/m 0 min 2 min 11 W/m 6,4 km/h (2 Bft) 100,00 %
10.03.2020 07:56 7,6 C 6,7 C 6,1 C 98 % 1005,6 hPa 0,0 l/m 0 min 2 min 11 W/m 19,3 km/h (3 Bft) 100,00 %
10.03.2020 07:58 7,7 C 6,7 C 6,1 C 98 % 1005,5 hPa 0,0 l/m 0 min 2 min 12 W/m 12,9 km/h (3 Bft) 100,00 %
10.03.2020 08:00 7,7 C 6,7 C 6,1 C 98 % 1005,6 hPa 0,0 l/m 0 min 2 min 12 W/m 19,3 km/h (3 Bft) 100,00 %
10.03.2020 08:02 7,7 C 6,7 C 6,1 C 98 % 1005,7 hPa 0,0 l/m 0 min 2 min 13 W/m 29,0 km/h (5 Bft) 97,87 %
10.03.2020 08:04 7,7 C 6,7 C 6,1 C 98 % 1005,8 hPa 0,0 l/m 0 min 2 min 12 W/m 29,0 km/h (5 Bft) 97,87 %
10.03.2020 08:06 7,7 C 6,7 C 6,1 C 98 % 1005,7 hPa 0,0 l/m 0 min 2 min 14 W/m 32,2 km/h (5 Bft) 97,87 %
10.03.2020 08:08 7,7 C 6,7 C 6,1 C 98 % 1005,8 hPa 0,0 l/m 0 min 2 min 16 W/m 38,6 km/h (5 Bft) 95,65 %
10.03.2020 08:10 7,8 C 6,7 C 6,1 C 98 % 1005,8 hPa 0,0 l/m 0 min 2 min 17 W/m 29,0 km/h (5 Bft) 97,87 %
10.03.2020 08:12 7,8 C 6,7 C 6,1 C 98 % 1005,8 hPa 0,0 l/m 0 min 2 min 20 W/m 25,7 km/h (4 Bft) 93,62 %
10.03.2020 08:14 7,8 C 6,7 C 6,1 C 98 % 1005,8 hPa 0,0 l/m 0 min 2 min 19 W/m 6,4 km/h (2 Bft) 95,74 %
10.03.2020 08:16 7,8 C 7,2 C 6,7 C 98 % 1006,1 hPa 0,0 l/m 0 min 2 min 19 W/m 16,1 km/h (3 Bft) 93,62 %
10.03.2020 08:18 7,8 C 7,2 C 6,7 C 98 % 1005,8 hPa 0,0 l/m 0 min 2 min 22 W/m 3,2 km/h (1 Bft) 93,62 %
10.03.2020 08:20 7,8 C 7,2 C 6,7 C 98 % 1005,9 hPa 0,0 l/m 0 min 2 min 23 W/m 12,9 km/h (3 Bft) 95,65 %
10.03.2020 08:22 7,8 C 7,2 C 6,7 C 98 % 1005,8 hPa 0,0 l/m 0 min 2 min 24 W/m 16,1 km/h (3 Bft) 95,74 %
10.03.2020 08:24 7,9 C 7,2 C 6,7 C 98 % 1005,9 hPa 0,0 l/m 0 min 2 min 25 W/m 12,9 km/h (3 Bft) 93,62 %
10.03.2020 08:26 7,9 C 7,2 C 6,7 C 98 % 1005,9 hPa 0,0 l/m 0 min 2 min 24 W/m 22,5 km/h (4 Bft) 93,62 %
10.03.2020 08:28 7,9 C 7,2 C 6,7 C 98 % 1006,0 hPa 0,0 l/m 0 min 2 min 22 W/m 12,9 km/h (3 Bft) 93,62 %
10.03.2020 08:30 7,9 C 7,2 C 6,7 C 98 % 1005,9 hPa 0,0 l/m 0 min 2 min 25 W/m 16,1 km/h (3 Bft) 93,62 %
10.03.2020 08:32 7,9 C 7,2 C 6,7 C 98 % 1005,8 hPa 0,0 l/m 0 min 2 min 26 W/m 9,7 km/h (2 Bft) 95,65 %
10.03.2020 08:34 7,9 C 7,2 C 6,7 C 98 % 1005,9 hPa 0,0 l/m 0 min 2 min 32 W/m 16,1 km/h (3 Bft) 93,62 %
10.03.2020 08:36 8,0 C 7,2 C 6,7 C 98 % 1005,8 hPa 0,0 l/m 0 min 2 min 36 W/m 22,5 km/h (4 Bft) 93,62 %
10.03.2020 08:38 8,1 C 7,2 C 6,7 C 98 % 1005,9 hPa 0,0 l/m 0 min 2 min 32 W/m 16,1 km/h (3 Bft) 93,62 %
10.03.2020 08:40 8,1 C 7,2 C 6,7 C 98 % 1005,9 hPa 0,0 l/m 0 min 2 min 34 W/m 16,1 km/h (3 Bft) 93,62 %
10.03.2020 08:42 8,1 C 7,2 C 6,7 C 98 % 1005,8 hPa 0,0 l/m 0 min 2 min 43 W/m 16,1 km/h (3 Bft) 93,62 %
10.03.2020 08:44 8,1 C 7,2 C 6,7 C 98 % 1005,7 hPa 0,0 l/m 0 min 2 min 46 W/m 41,8 km/h (6 Bft) 93,48 %
10.03.2020 08:46 8,2 C 7,2 C 6,7 C 98 % 1005,7 hPa 0,0 l/m 0 min 2 min 36 W/m 32,2 km/h (5 Bft) 93,62 %
10.03.2020 08:48 8,2 C 7,2 C 6,7 C 98 % 1005,8 hPa 0,0 l/m 0 min 2 min 33 W/m 25,7 km/h (4 Bft) 89,36 %
10.03.2020 08:50 8,2 C 7,2 C 6,7 C 98 % 1005,8 hPa 0,0 l/m 0 min 2 min 34 W/m 19,3 km/h (3 Bft) 93,62 %
10.03.2020 08:52 8,2 C 7,2 C 6,7 C 98 % 1005,8 hPa 0,0 l/m 0 min 2 min 50 W/m 19,3 km/h (3 Bft) 93,62 %
10.03.2020 08:54 8,3 C 7,2 C 6,7 C 98 % 1005,8 hPa 0,0 l/m 0 min 2 min 49 W/m 25,7 km/h (4 Bft) 95,74 %
10.03.2020 08:56 8,3 C 7,2 C 6,7 C 98 % 1005,8 hPa 0,0 l/m 0 min 2 min 37 W/m 6,4 km/h (2 Bft) 93,48 %
10.03.2020 08:58 8,3 C 7,2 C 6,7 C 98 % 1005,8 hPa 0,0 l/m 0 min 2 min 36 W/m 22,5 km/h (4 Bft) 95,74 %
10.03.2020 09:00 8,3 C 7,2 C 6,7 C 98 % 1005,8 hPa 0,0 l/m 0 min 2 min 39 W/m 16,1 km/h (3 Bft) 95,74 %
10.03.2020 09:02 8,3 C 7,2 C 6,7 C 98 % 1005,8 hPa 0,0 l/m 0 min 2 min 50 W/m 25,7 km/h (4 Bft) 97,87 %
10.03.2020 09:04 8,4 C 7,8 C 7,2 C 98 % 1005,9 hPa 0,0 l/m 0 min 2 min 56 W/m 35,4 km/h (5 Bft) 95,74 %
10.03.2020 09:06 8,4 C 7,8 C 7,2 C 98 % 1005,7 hPa 0,0 l/m 0 min 2 min 63 W/m 35,4 km/h (5 Bft) 97,83 %
10.03.2020 09:08 8,4 C 7,8 C 7,2 C 98 % 1005,8 hPa 0,0 l/m 0 min 2 min 74 W/m 25,7 km/h (4 Bft) 93,62 %
10.03.2020 09:10 8,4 C 7,8 C 7,2 C 98 % 1005,9 hPa 0,0 l/m 0 min 2 min 59 W/m 12,9 km/h (3 Bft) 97,87 %
10.03.2020 09:12 8,5 C 7,8 C 7,2 C 98 % 1005,8 hPa 0,0 l/m 0 min 2 min 53 W/m 12,9 km/h (3 Bft) 97,87 %
10.03.2020 09:14 8,5 C 7,8 C 7,2 C 98 % 1005,9 hPa 0,0 l/m 0 min 2 min 55 W/m 22,5 km/h (4 Bft) 97,87 %
10.03.2020 09:16 8,5 C 7,8 C 7,2 C 98 % 1005,9 hPa 0,0 l/m 0 min 2 min 53 W/m 19,3 km/h (3 Bft) 97,87 %
10.03.2020 09:18 8,6 C 7,8 C 7,2 C 98 % 1005,8 hPa 0,0 l/m 0 min 2 min 45 W/m 19,3 km/h (3 Bft) 95,65 %
10.03.2020 09:20 8,6 C 7,8 C 7,2 C 98 % 1005,9 hPa 0,0 l/m 0 min 2 min 53 W/m 16,1 km/h (3 Bft) 95,74 %
10.03.2020 09:22 8,6 C 7,8 C 7,2 C 98 % 1005,9 hPa 0,0 l/m 0 min 0 min 55 W/m 22,5 km/h (4 Bft) 97,87 %
10.03.2020 09:24 8,6 C 7,8 C 7,2 C 98 % 1006,0 hPa 0,0 l/m 0 min 2 min 57 W/m 32,2 km/h (5 Bft) 100,00 %
10.03.2020 09:26 8,6 C 7,8 C 7,2 C 98 % 1005,9 hPa 0,0 l/m 0 min 2 min 64 W/m 12,9 km/h (3 Bft) 100,00 %
10.03.2020 09:28 8,6 C 7,8 C 7,2 C 98 % 1005,9 hPa 0,0 l/m 0 min 2 min 79 W/m 3,2 km/h (1 Bft) 97,87 %
10.03.2020 09:30 8,7 C 7,8 C 7,2 C 98 % 1006,0 hPa 0,0 l/m 0 min 2 min 94 W/m 22,5 km/h (4 Bft) 100,00 %
10.03.2020 09:32 8,7 C 7,8 C 7,2 C 98 % 1006,0 hPa 0,0 l/m 0 min 2 min 97 W/m 35,4 km/h (5 Bft) 97,87 %
10.03.2020 09:34 8,7 C 7,8 C 7,2 C 98 % 1006,0 hPa 0,0 l/m 0 min 2 min 72 W/m 12,9 km/h (3 Bft) 100,00 %
10.03.2020 09:36 8,7 C 7,8 C 7,2 C 98 % 1006,0 hPa 0,0 l/m 0 min 2 min 55 W/m 6,4 km/h (2 Bft) 100,00 %
10.03.2020 09:38 8,8 C 7,8 C 7,2 C 98 % 1006,0 hPa 0,0 l/m 0 min 2 min 61 W/m 6,4 km/h (2 Bft) 100,00 %
10.03.2020 09:40 8,8 C 7,8 C 7,2 C 98 % 1006,0 hPa 0,0 l/m 0 min 2 min 62 W/m 19,3 km/h (3 Bft) 100,00 %
10.03.2020 09:42 8,8 C 7,8 C 7,2 C 98 % 1006,0 hPa 0,0 l/m 0 min 2 min 83 W/m 19,3 km/h (3 Bft) 100,00 %
10.03.2020 09:44 8,8 C 7,8 C 7,2 C 98 % 1006,1 hPa 0,0 l/m 0 min 2 min 71 W/m 32,2 km/h (5 Bft) 100,00 %
10.03.2020 09:46 8,8 C 7,8 C 7,2 C 98 % 1006,0 hPa 0,0 l/m 0 min 2 min 73 W/m 0,0 km/h (0 Bft) 97,87 %
10.03.2020 09:48 8,9 C 8,3 C 7,8 C 98 % 1006,0 hPa 0,0 l/m 0 min 2 min 88 W/m 3,2 km/h (1 Bft) 100,00 %
10.03.2020 09:50 8,9 C 8,3 C 7,8 C 98 % 1006,0 hPa 0,0 l/m 0 min 2 min 95 W/m 3,2 km/h (1 Bft) 100,00 %
10.03.2020 09:52 8,9 C 8,3 C 7,8 C 98 % 1006,1 hPa 0,0 l/m 0 min 2 min 68 W/m 29,0 km/h (5 Bft) 100,00 %
10.03.2020 09:54 8,9 C 8,3 C 7,8 C 98 % 1006,0 hPa 0,0 l/m 0 min 2 min 65 W/m 16,1 km/h (3 Bft) 97,83 %
10.03.2020 09:56 9,0 C 8,3 C 7,8 C 98 % 1006,0 hPa 0,0 l/m 0 min 2 min 70 W/m 19,3 km/h (3 Bft) 100,00 %
10.03.2020 09:58 9,0 C 8,3 C 7,8 C 98 % 1006,0 hPa 0,0 l/m 0 min 2 min 72 W/m 16,1 km/h (3 Bft) 100,00 %
10.03.2020 10:00 9,1 C 8,3 C 7,8 C 98 % 1006,1 hPa 0,0 l/m 0 min 2 min 74 W/m 12,9 km/h (3 Bft) 100,00 %
10.03.2020 10:02 9,1 C 8,3 C 7,8 C 98 % 1006,1 hPa 0,0 l/m 0 min 2 min 85 W/m 12,9 km/h (3 Bft) 100,00 %
10.03.2020 10:04 9,1 C 8,3 C 7,8 C 98 % 1006,1 hPa 0,0 l/m 0 min 2 min 99 W/m 12,9 km/h (3 Bft) 100,00 %
10.03.2020 10:06 9,1 C 8,3 C 7,8 C 98 % 1006,1 hPa 0,0 l/m 0 min 2 min 109 W/m 22,5 km/h (4 Bft) 100,00 %
10.03.2020 10:08 9,2 C 8,3 C 7,8 C 98 % 1006,0 hPa 0,0 l/m 0 min 2 min 110 W/m 19,3 km/h (3 Bft) 97,87 %
10.03.2020 10:10 9,2 C 8,3 C 7,8 C 98 % 1006,0 hPa 0,0 l/m 0 min 2 min 113 W/m 35,4 km/h (5 Bft) 100,00 %
10.03.2020 10:12 9,2 C 8,3 C 7,8 C 98 % 1006,0 hPa 0,2 l/m 0 min 2 min 104 W/m 35,4 km/h (5 Bft) 100,00 %
10.03.2020 10:14 9,3 C 8,3 C 7,8 C 98 % 1006,1 hPa 0,0 l/m 0 min 2 min 98 W/m 9,7 km/h (2 Bft) 100,00 %
10.03.2020 10:16 9,3 C 8,3 C 7,8 C 98 % 1006,1 hPa 0,0 l/m 0 min 2 min 102 W/m 16,1 km/h (3 Bft) 100,00 %
10.03.2020 10:18 9,3 C 8,3 C 7,8 C 98 % 1006,1 hPa 0,0 l/m 0 min 2 min 94 W/m 16,1 km/h (3 Bft) 100,00 %
10.03.2020 10:20 9,3 C 8,3 C 7,8 C 98 % 1006,1 hPa 0,0 l/m 0 min 2 min 90 W/m 19,3 km/h (3 Bft) 100,00 %
10.03.2020 10:22 9,4 C 8,3 C 7,8 C 98 % 1006,1 hPa 0,0 l/m 0 min 2 min 94 W/m 29,0 km/h (5 Bft) 100,00 %
10.03.2020 10:24 9,4 C 8,3 C 7,8 C 98 % 1006,1 hPa 0,0 l/m 0 min 2 min 89 W/m 22,5 km/h (4 Bft) 100,00 %
10.03.2020 10:26 9,4 C 8,3 C 7,8 C 98 % 1006,1 hPa 0,0 l/m 0 min 2 min 88 W/m 19,3 km/h (3 Bft) 100,00 %
10.03.2020 10:28 9,4 C 8,3 C 7,8 C 98 % 1005,9 hPa 0,0 l/m 0 min 2 min 102 W/m 25,7 km/h (4 Bft) 100,00 %
10.03.2020 10:30 9,4 C 8,3 C 7,8 C 98 % 1006,0 hPa 0,0 l/m 0 min 2 min 114 W/m 25,7 km/h (4 Bft) 100,00 %
10.03.2020 10:32 9,4 C 8,3 C 7,8 C 98 % 1005,9 hPa 0,0 l/m 0 min 2 min 125 W/m 32,2 km/h (5 Bft) 100,00 %
10.03.2020 10:34 9,5 C 8,3 C 7,8 C 98 % 1005,9 hPa 0,0 l/m 0 min 2 min 110 W/m 12,9 km/h (3 Bft) 100,00 %
10.03.2020 10:36 9,5 C 8,3 C 7,8 C 98 % 1005,9 hPa 0,0 l/m 0 min 2 min 87 W/m 16,1 km/h (3 Bft) 97,87 %
10.03.2020 10:38 9,6 C 8,3 C 7,8 C 98 % 1005,9 hPa 0,0 l/m 0 min 2 min 76 W/m 25,7 km/h (4 Bft) 100,00 %
10.03.2020 10:40 9,6 C 8,3 C 7,8 C 98 % 1005,9 hPa 0,0 l/m 0 min 2 min 71 W/m 38,6 km/h (5 Bft) 100,00 %
10.03.2020 10:42 9,6 C 8,3 C 7,8 C 98 % 1005,9 hPa 0,0 l/m 0 min 2 min 69 W/m 16,1 km/h (3 Bft) 100,00 %
10.03.2020 10:44 9,6 C 8,3 C 7,8 C 98 % 1005,8 hPa 0,0 l/m 0 min 2 min 79 W/m 19,3 km/h (3 Bft) 97,87 %
10.03.2020 10:46 9,6 C 8,3 C 7,8 C 98 % 1005,9 hPa 0,0 l/m 0 min 2 min 82 W/m 16,1 km/h (3 Bft) 97,87 %
10.03.2020 10:48 9,6 C 8,3 C 7,8 C 98 % 1005,9 hPa 0,2 l/m 0 min 2 min 74 W/m 41,8 km/h (6 Bft) 95,74 %
10.03.2020 10:50 9,6 C 8,3 C 7,8 C 98 % 1005,9 hPa 0,0 l/m 0 min 2 min 87 W/m 19,3 km/h (3 Bft) 97,83 %
10.03.2020 10:52 9,6 C 8,3 C 8,3 C 98 % 1005,9 hPa 0,0 l/m 0 min 2 min 92 W/m 19,3 km/h (3 Bft) 97,87 %
10.03.2020 10:54 9,6 C 8,3 C 8,3 C 98 % 1005,9 hPa 0,0 l/m 0 min 2 min 92 W/m 29,0 km/h (5 Bft) 97,87 %
10.03.2020 10:56 9,6 C 8,3 C 8,3 C 98 % 1005,9 hPa 0,0 l/m 0 min 2 min 95 W/m 29,0 km/h (5 Bft) 95,74 %
10.03.2020 10:58 9,6 C 8,9 C 8,3 C 98 % 1005,9 hPa 0,0 l/m 0 min 2 min 91 W/m 19,3 km/h (3 Bft) 97,87 %
10.03.2020 11:00 9,6 C 8,9 C 8,3 C 98 % 1005,9 hPa 0,0 l/m 0 min 2 min 88 W/m 19,3 km/h (3 Bft) 97,87 %
10.03.2020 11:02 9,7 C 8,9 C 8,3 C 98 % 1005,8 hPa 0,0 l/m 0 min 2 min 88 W/m 19,3 km/h (3 Bft) 97,83 %
10.03.2020 11:04 9,7 C 8,9 C 8,3 C 98 % 1005,8 hPa 0,0 l/m 0 min 2 min 112 W/m 29,0 km/h (5 Bft) 96,08 %
10.03.2020 11:06 9,7 C 8,9 C 8,3 C 98 % 1005,8 hPa 0,0 l/m 0 min 2 min 111 W/m 35,4 km/h (5 Bft) 97,83 %
10.03.2020 11:08 9,7 C 8,9 C 8,3 C 98 % 1005,8 hPa 0,0 l/m 0 min 2 min 122 W/m 22,5 km/h (4 Bft) 95,74 %
10.03.2020 11:10 9,7 C 8,9 C 8,3 C 98 % 1005,7 hPa 0,0 l/m 0 min 2 min 123 W/m 38,6 km/h (5 Bft) 93,62 %
10.03.2020 11:12 9,7 C 8,9 C 8,3 C 98 % 1005,7 hPa 0,0 l/m 0 min 2 min 117 W/m 32,2 km/h (5 Bft) 95,74 %
10.03.2020 11:14 9,8 C 8,9 C 8,3 C 98 % 1005,8 hPa 0,0 l/m 0 min 2 min 98 W/m 19,3 km/h (3 Bft) 95,74 %
10.03.2020 11:16 9,8 C 8,9 C 8,3 C 98 % 1005,9 hPa 0,0 l/m 0 min 2 min 89 W/m 16,1 km/h (3 Bft) 97,87 %
10.03.2020 11:18 9,8 C 8,9 C 8,3 C 98 % 1005,9 hPa 0,0 l/m 0 min 2 min 79 W/m 16,1 km/h (3 Bft) 97,83 %
10.03.2020 11:20 9,8 C 8,9 C 8,3 C 98 % 1005,9 hPa 0,0 l/m 0 min 2 min 90 W/m 22,5 km/h (4 Bft) 93,62 %
10.03.2020 11:22 9,8 C 8,9 C 8,3 C 98 % 1005,9 hPa 0,0 l/m 0 min 2 min 87 W/m 19,3 km/h (3 Bft) 93,62 %
10.03.2020 11:24 9,9 C 8,9 C 8,3 C 98 % 1006,1 hPa 0,0 l/m 0 min 2 min 70 W/m 19,3 km/h (3 Bft) 95,74 %
10.03.2020 11:26 9,9 C 8,9 C 8,3 C 98 % 1006,0 hPa 0,0 l/m 0 min 2 min 69 W/m 19,3 km/h (3 Bft) 97,87 %
10.03.2020 11:28 9,9 C 8,9 C 8,3 C 98 % 1006,0 hPa 0,0 l/m 0 min 2 min 64 W/m 22,5 km/h (4 Bft) 95,74 %
10.03.2020 11:30 9,9 C 8,9 C 8,3 C 98 % 1005,8 hPa 0,0 l/m 0 min 2 min 61 W/m 19,3 km/h (3 Bft) 93,48 %
10.03.2020 11:32 9,9 C 8,9 C 8,3 C 98 % 1005,8 hPa 0,0 l/m 0 min 2 min 76 W/m 16,1 km/h (3 Bft) 93,62 %
10.03.2020 11:34 9,9 C 8,9 C 8,3 C 98 % 1005,8 hPa 0,0 l/m 0 min 2 min 74 W/m 16,1 km/h (3 Bft) 95,74 %
10.03.2020 11:36 9,9 C 8,9 C 8,3 C 98 % 1005,8 hPa 0,0 l/m 0 min 2 min 80 W/m 19,3 km/h (3 Bft) 95,74 %
10.03.2020 11:38 9,9 C 8,9 C 8,3 C 98 % 1005,8 hPa 0,0 l/m 0 min 2 min 89 W/m 22,5 km/h (4 Bft) 93,62 %
10.03.2020 11:40 9,9 C 8,9 C 8,3 C 98 % 1005,7 hPa 0,0 l/m 0 min 2 min 102 W/m 22,5 km/h (4 Bft) 93,48 %
10.03.2020 11:42 10,0 C 8,9 C 8,3 C 98 % 1005,8 hPa 0,0 l/m 0 min 2 min 100 W/m 25,7 km/h (4 Bft) 95,74 %
10.03.2020 11:44 10,0 C 8,9 C 8,9 C 98 % 1005,8 hPa 0,0 l/m 0 min 2 min 99 W/m 25,7 km/h (4 Bft) 95,74 %
10.03.2020 11:46 10,1 C 9,4 C 8,9 C 98 % 1005,8 hPa 0,0 l/m 0 min 2 min 94 W/m 16,1 km/h (3 Bft) 93,62 %
10.03.2020 11:48 10,1 C 8,9 C 8,9 C 98 % 1005,9 hPa 0,0 l/m 0 min 2 min 96 W/m 25,7 km/h (4 Bft) 95,74 %
10.03.2020 11:50 10,1 C 9,4 C 8,9 C 98 % 1005,9 hPa 0,0 l/m 0 min 2 min 104 W/m 19,3 km/h (3 Bft) 95,74 %
10.03.2020 11:52 10,1 C 9,4 C 8,9 C 98 % 1005,8 hPa 0,0 l/m 0 min 2 min 97 W/m 19,3 km/h (3 Bft) 95,65 %
10.03.2020 11:54 10,1 C 9,4 C 8,9 C 98 % 1005,9 hPa 0,0 l/m 0 min 2 min 88 W/m 25,7 km/h (4 Bft) 95,74 %
10.03.2020 11:56 10,2 C 9,4 C 8,9 C 98 % 1005,9 hPa 0,0 l/m 0 min 2 min 92 W/m 25,7 km/h (4 Bft) 95,74 %
10.03.2020 11:58 10,2 C 9,4 C 8,9 C 98 % 1005,8 hPa 0,0 l/m 0 min 2 min 102 W/m 32,2 km/h (5 Bft) 95,74 %
10.03.2020 12:00 10,2 C 9,4 C 8,9 C 98 % 1005,8 hPa 0,0 l/m 0 min 2 min 105 W/m 29,0 km/h (5 Bft) 95,74 %
10.03.2020 12:02 10,2 C 9,4 C 8,9 C 98 % 1005,8 hPa 0,0 l/m 0 min 2 min 121 W/m 29,0 km/h (5 Bft) 93,62 %
10.03.2020 12:04 10,2 C 9,4 C 9,4 C 98 % 1005,8 hPa 0,0 l/m 0 min 2 min 138 W/m 22,5 km/h (4 Bft) 95,65 %
10.03.2020 12:08 10,3 C 9,4 C 8,9 C 98 % 1005,8 hPa 0,2 l/m 0 min 4 min 108 W/m 38,6 km/h (5 Bft) 95,51 %
10.03.2020 12:10 10,4 C 9,4 C 8,9 C 98 % 1005,9 hPa 0,0 l/m 0 min 2 min 121 W/m 29,0 km/h (5 Bft) 95,74 %
10.03.2020 12:12 10,4 C 9,4 C 9,4 C 98 % 1005,9 hPa 0,0 l/m 0 min 2 min 110 W/m 22,5 km/h (4 Bft) 93,62 %
10.03.2020 12:14 10,4 C 9,4 C 9,4 C 98 % 1005,9 hPa 0,0 l/m 0 min 2 min 102 W/m 22,5 km/h (4 Bft) 95,74 %
10.03.2020 12:16 10,4 C 9,4 C 9,4 C 98 % 1005,9 hPa 0,0 l/m 0 min 2 min 101 W/m 16,1 km/h (3 Bft) 95,74 %
10.03.2020 12:18 10,5 C 9,4 C 9,4 C 98 % 1005,9 hPa 0,0 l/m 0 min 2 min 107 W/m 22,5 km/h (4 Bft) 97,83 %
10.03.2020 12:20 10,5 C 9,4 C 9,4 C 98 % 1005,8 hPa 0,0 l/m 0 min 2 min 117 W/m 32,2 km/h (5 Bft) 97,87 %
10.03.2020 12:22 10,6 C 9,4 C 9,4 C 98 % 1005,9 hPa 0,0 l/m 0 min 2 min 121 W/m 16,1 km/h (3 Bft) 97,87 %
10.03.2020 12:24 10,6 C 9,4 C 9,4 C 98 % 1005,9 hPa 0,0 l/m 0 min 2 min 125 W/m 19,3 km/h (3 Bft) 95,74 %
10.03.2020 12:26 10,6 C 10,0 C 9,4 C 98 % 1005,8 hPa 0,0 l/m 0 min 2 min 123 W/m 19,3 km/h (3 Bft) 97,87 %
10.03.2020 12:28 10,6 C 10,0 C 9,4 C 98 % 1005,8 hPa 0,0 l/m 0 min 2 min 127 W/m 25,7 km/h (4 Bft) 100,00 %
10.03.2020 12:30 10,6 C 10,0 C 9,4 C 98 % 1005,7 hPa 0,0 l/m 0 min 2 min 129 W/m 22,5 km/h (4 Bft) 100,00 %
10.03.2020 12:32 10,7 C 10,0 C 9,4 C 98 % 1005,7 hPa 0,0 l/m 0 min 2 min 128 W/m 19,3 km/h (3 Bft) 97,87 %
10.03.2020 12:34 10,7 C 10,0 C 9,4 C 98 % 1005,7 hPa 0,0 l/m 0 min 2 min 124 W/m 22,5 km/h (4 Bft) 97,87 %
10.03.2020 12:36 10,7 C 10,0 C 9,4 C 98 % 1005,7 hPa 0,0 l/m 0 min 2 min 119 W/m 22,5 km/h (4 Bft) 100,00 %
10.03.2020 12:38 10,7 C 10,0 C 9,4 C 98 % 1005,7 hPa 0,0 l/m 0 min 2 min 115 W/m 25,7 km/h (4 Bft) 100,00 %
10.03.2020 12:40 10,8 C 10,0 C 9,4 C 98 % 1005,7 hPa 0,0 l/m 0 min 2 min 111 W/m 19,3 km/h (3 Bft) 100,00 %
10.03.2020 12:42 10,8 C 10,0 C 9,4 C 98 % 1005,8 hPa 0,0 l/m 0 min 2 min 110 W/m 19,3 km/h (3 Bft) 100,00 %
10.03.2020 12:44 10,8 C 10,0 C 9,4 C 98 % 1005,8 hPa 0,0 l/m 0 min 2 min 111 W/m 12,9 km/h (3 Bft) 100,00 %
10.03.2020 12:46 10,8 C 10,0 C 9,4 C 98 % 1005,8 hPa 0,0 l/m 0 min 2 min 114 W/m 22,5 km/h (4 Bft) 97,87 %
10.03.2020 12:48 10,8 C 10,0 C 9,4 C 98 % 1005,7 hPa 0,0 l/m 0 min 2 min 129 W/m 22,5 km/h (4 Bft) 100,00 %
10.03.2020 12:50 10,8 C 10,0 C 9,4 C 98 % 1005,7 hPa 0,0 l/m 0 min 2 min 141 W/m 29,0 km/h (5 Bft) 100,00 %
10.03.2020 12:52 10,9 C 10,0 C 9,4 C 98 % 1005,8 hPa 0,0 l/m 0 min 2 min 138 W/m 22,5 km/h (4 Bft) 100,00 %
10.03.2020 12:54 10,9 C 10,0 C 9,4 C 98 % 1005,7 hPa 0,2 l/m 0 min 2 min 132 W/m 19,3 km/h (3 Bft) 100,00 %
10.03.2020 12:56 10,9 C 10,0 C 9,4 C 98 % 1005,7 hPa 0,0 l/m 0 min 2 min 139 W/m 19,3 km/h (3 Bft) 100,00 %
10.03.2020 12:58 11,0 C 10,0 C 10,0 C 98 % 1005,7 hPa 0,0 l/m 0 min 2 min 133 W/m 25,7 km/h (4 Bft) 100,00 %
10.03.2020 13:00 11,0 C 10,0 C 10,0 C 98 % 1005,6 hPa 0,0 l/m 0 min 2 min 148 W/m 22,5 km/h (4 Bft) 97,87 %
10.03.2020 13:02 11,0 C 10,0 C 10,0 C 98 % 1005,6 hPa 0,0 l/m 0 min 2 min 127 W/m 22,5 km/h (4 Bft) 100,00 %
10.03.2020 13:04 11,1 C 10,0 C 10,0 C 98 % 1005,6 hPa 0,0 l/m 0 min 2 min 123 W/m 29,0 km/h (5 Bft) 100,00 %
10.03.2020 13:06 11,1 C 10,0 C 10,0 C 98 % 1005,6 hPa 0,0 l/m 0 min 2 min 138 W/m 19,3 km/h (3 Bft) 100,00 %
10.03.2020 13:08 11,1 C 10,6 C 10,0 C 98 % 1005,5 hPa 0,0 l/m 0 min 2 min 146 W/m 22,5 km/h (4 Bft) 100,00 %
10.03.2020 13:10 11,1 C 10,6 C 10,0 C 98 % 1005,5 hPa 0,0 l/m 0 min 2 min 149 W/m 19,3 km/h (3 Bft) 100,00 %
10.03.2020 13:12 11,2 C 10,6 C 10,0 C 98 % 1005,6 hPa 0,0 l/m 0 min 2 min 149 W/m 22,5 km/h (4 Bft) 97,87 %
10.03.2020 13:14 11,2 C 10,6 C 10,0 C 98 % 1005,6 hPa 0,0 l/m 0 min 2 min 153 W/m 32,2 km/h (5 Bft) 100,00 %
10.03.2020 13:16 11,2 C 10,6 C 10,0 C 98 % 1005,5 hPa 0,0 l/m 0 min 2 min 151 W/m 22,5 km/h (4 Bft) 97,83 %
10.03.2020 13:18 11,3 C 10,6 C 10,0 C 98 % 1005,5 hPa 0,0 l/m 0 min 2 min 148 W/m 16,1 km/h (3 Bft) 97,87 %
10.03.2020 13:20 11,3 C 10,6 C 10,0 C 98 % 1005,5 hPa 0,0 l/m 0 min 2 min 155 W/m 12,9 km/h (3 Bft) 97,87 %
10.03.2020 13:22 11,3 C 10,6 C 10,0 C 98 % 1005,5 hPa 0,0 l/m 0 min 2 min 130 W/m 16,1 km/h (3 Bft) 97,87 %
10.03.2020 13:24 11,3 C 10,6 C 10,0 C 98 % 1005,5 hPa 0,0 l/m 0 min 2 min 118 W/m 25,7 km/h (4 Bft) 95,74 %
10.03.2020 13:26 11,3 C 10,6 C 10,0 C 98 % 1005,5 hPa 0,0 l/m 0 min 2 min 104 W/m 19,3 km/h (3 Bft) 95,74 %
10.03.2020 13:28 11,3 C 10,6 C 10,0 C 98 % 1005,4 hPa 0,0 l/m 0 min 2 min 104 W/m 25,7 km/h (4 Bft) 97,83 %
10.03.2020 13:30 11,4 C 10,6 C 10,0 C 98 % 1005,4 hPa 0,0 l/m 0 min 2 min 116 W/m 12,9 km/h (3 Bft) 97,87 %
10.03.2020 13:32 11,4 C 10,6 C 10,0 C 98 % 1005,4 hPa 0,0 l/m 0 min 2 min 130 W/m 16,1 km/h (3 Bft) 97,87 %
10.03.2020 13:34 11,4 C 10,6 C 10,0 C 98 % 1005,3 hPa 0,0 l/m 0 min 2 min 112 W/m 16,1 km/h (3 Bft) 97,87 %
10.03.2020 13:36 11,4 C 10,6 C 10,0 C 98 % 1005,2 hPa 0,0 l/m 0 min 2 min 105 W/m 25,7 km/h (4 Bft) 97,87 %
10.03.2020 13:38 11,5 C 10,6 C 10,0 C 98 % 1005,2 hPa 0,0 l/m 0 min 2 min 109 W/m 22,5 km/h (4 Bft) 97,83 %
10.03.2020 13:40 11,5 C 10,6 C 10,0 C 98 % 1005,2 hPa 0,0 l/m 0 min 2 min 130 W/m 22,5 km/h (4 Bft) 97,87 %
10.03.2020 13:42 11,5 C 10,6 C 10,0 C 98 % 1005,1 hPa 0,0 l/m 0 min 2 min 129 W/m 22,5 km/h (4 Bft) 95,74 %
10.03.2020 13:44 11,5 C 10,6 C 10,0 C 98 % 1005,1 hPa 0,0 l/m 0 min 2 min 124 W/m 32,2 km/h (5 Bft) 97,87 %
10.03.2020 13:46 11,6 C 10,6 C 10,0 C 98 % 1005,1 hPa 0,0 l/m 0 min 2 min 103 W/m 22,5 km/h (4 Bft) 95,74 %
10.03.2020 13:48 11,6 C 10,6 C 10,0 C 98 % 1005,1 hPa 0,0 l/m 0 min 2 min 93 W/m 22,5 km/h (4 Bft) 97,87 %
10.03.2020 13:50 11,6 C 10,6 C 10,0 C 98 % 1005,2 hPa 0,0 l/m 0 min 2 min 85 W/m 16,1 km/h (3 Bft) 97,83 %
10.03.2020 13:52 11,6 C 10,6 C 10,0 C 98 % 1005,2 hPa 0,0 l/m 0 min 2 min 86 W/m 41,8 km/h (6 Bft) 97,87 %
10.03.2020 13:54 11,6 C 10,6 C 10,0 C 98 % 1005,2 hPa 0,0 l/m 0 min 2 min 84 W/m 16,1 km/h (3 Bft) 95,74 %
10.03.2020 13:56 11,6 C 10,6 C 10,0 C 98 % 1005,3 hPa 0,0 l/m 0 min 2 min 82 W/m 22,5 km/h (4 Bft) 97,87 %
10.03.2020 13:58 11,6 C 10,6 C 10,0 C 98 % 1005,2 hPa 0,0 l/m 0 min 2 min 72 W/m 19,3 km/h (3 Bft) 100,00 %
10.03.2020 14:00 11,6 C 10,6 C 10,0 C 98 % 1005,1 hPa 0,0 l/m 0 min 2 min 70 W/m 35,4 km/h (5 Bft) 97,87 %
10.03.2020 14:02 11,6 C 10,6 C 10,0 C 98 % 1005,3 hPa 0,0 l/m 0 min 2 min 57 W/m 29,0 km/h (5 Bft) 97,83 %
10.03.2020 14:04 11,6 C 10,6 C 10,0 C 98 % 1005,2 hPa 0,0 l/m 0 min 2 min 49 W/m 25,7 km/h (4 Bft) 100,00 %
10.03.2020 14:06 11,6 C 10,6 C 10,0 C 98 % 1005,2 hPa 0,0 l/m 0 min 2 min 45 W/m 35,4 km/h (5 Bft) 100,00 %
10.03.2020 14:08 11,6 C 10,6 C 10,0 C 98 % 1005,2 hPa 0,0 l/m 0 min 2 min 50 W/m 16,1 km/h (3 Bft) 97,87 %
10.03.2020 14:10 11,6 C 10,6 C 10,0 C 98 % 1005,2 hPa 0,0 l/m 0 min 2 min 56 W/m 25,7 km/h (4 Bft) 97,87 %
10.03.2020 14:12 11,6 C 10,6 C 10,0 C 98 % 1005,2 hPa 0,0 l/m 0 min 2 min 61 W/m 32,2 km/h (5 Bft) 100,00 %
10.03.2020 14:14 11,6 C 10,6 C 10,0 C 98 % 1005,2 hPa 0,0 l/m 0 min 2 min 70 W/m 19,3 km/h (3 Bft) 100,00 %
10.03.2020 14:16 11,6 C 10,6 C 10,0 C 98 % 1005,3 hPa 0,0 l/m 0 min 2 min 64 W/m 22,5 km/h (4 Bft) 100,00 %
10.03.2020 14:18 11,7 C 10,6 C 10,0 C 98 % 1005,2 hPa 0,0 l/m 0 min 2 min 54 W/m 22,5 km/h (4 Bft) 100,00 %
10.03.2020 14:20 11,7 C 10,6 C 10,0 C 98 % 1005,2 hPa 0,0 l/m 0 min 2 min 50 W/m 25,7 km/h (4 Bft) 100,00 %
10.03.2020 14:22 11,6 C 10,6 C 10,0 C 98 % 1005,3 hPa 0,0 l/m 0 min 2 min 48 W/m 22,5 km/h (4 Bft) 100,00 %
10.03.2020 14:24 11,7 C 10,6 C 10,0 C 98 % 1005,3 hPa 0,0 l/m 0 min 2 min 55 W/m 22,5 km/h (4 Bft) 97,87 %
10.03.2020 14:26 11,7 C 10,6 C 10,0 C 98 % 1005,4 hPa 0,2 l/m 0 min 2 min 49 W/m 32,2 km/h (5 Bft) 97,83 %
10.03.2020 14:28 11,6 C 10,6 C 10,0 C 98 % 1005,3 hPa 0,0 l/m 0 min 2 min 58 W/m 22,5 km/h (4 Bft) 100,00 %
10.03.2020 14:30 11,7 C 10,6 C 10,0 C 98 % 1005,2 hPa 0,0 l/m 0 min 2 min 74 W/m 16,1 km/h (3 Bft) 100,00 %
10.03.2020 14:32 11,7 C 10,6 C 10,0 C 98 % 1005,3 hPa 0,0 l/m 0 min 2 min 71 W/m 22,5 km/h (4 Bft) 95,74 %
10.03.2020 14:34 11,7 C 10,6 C 10,0 C 98 % 1005,2 hPa 0,0 l/m 0 min 2 min 83 W/m 22,5 km/h (4 Bft) 95,74 %
10.03.2020 14:36 11,7 C 10,6 C 10,0 C 98 % 1005,2 hPa 0,0 l/m 0 min 2 min 84 W/m 12,9 km/h (3 Bft) 97,83 %
10.03.2020 14:38 11,7 C 10,6 C 10,0 C 98 % 1005,1 hPa 0,0 l/m 0 min 2 min 94 W/m 16,1 km/h (3 Bft) 97,87 %
10.03.2020 14:40 11,7 C 10,6 C 10,0 C 98 % 1005,1 hPa 0,0 l/m 0 min 2 min 100 W/m 19,3 km/h (3 Bft) 97,87 %
10.03.2020 14:42 11,7 C 10,6 C 10,0 C 98 % 1005,1 hPa 0,0 l/m 0 min 2 min 113 W/m 29,0 km/h (5 Bft) 95,74 %
10.03.2020 14:44 11,7 C 10,6 C 10,0 C 98 % 1005,0 hPa 0,0 l/m 0 min 2 min 126 W/m 29,0 km/h (5 Bft) 95,74 %
10.03.2020 14:46 11,7 C 10,6 C 10,6 C 98 % 1004,9 hPa 0,0 l/m 0 min 2 min 159 W/m 38,6 km/h (5 Bft) 95,74 %
10.03.2020 14:48 11,7 C 11,1 C 10,6 C 98 % 1004,9 hPa 0,0 l/m 0 min 2 min 160 W/m 22,5 km/h (4 Bft) 95,65 %
10.03.2020 14:50 11,8 C 11,1 C 10,6 C 98 % 1004,9 hPa 0,0 l/m 0 min 2 min 148 W/m 22,5 km/h (4 Bft) 95,74 %
10.03.2020 14:52 11,8 C 11,1 C 10,6 C 98 % 1004,9 hPa 0,0 l/m 0 min 2 min 136 W/m 22,5 km/h (4 Bft) 93,62 %
10.03.2020 14:54 11,8 C 11,1 C 10,6 C 98 % 1004,9 hPa 0,0 l/m 0 min 0 min 127 W/m 16,1 km/h (3 Bft) 95,74 %
10.03.2020 14:56 11,8 C 11,1 C 10,6 C 98 % 1004,9 hPa 0,0 l/m 0 min 0 min 119 W/m 22,5 km/h (4 Bft) 95,74 %
10.03.2020 14:58 11,9 C 11,1 C 10,6 C 98 % 1004,8 hPa 0,0 l/m 0 min 0 min 115 W/m 22,5 km/h (4 Bft) 95,74 %
10.03.2020 15:00 11,9 C 11,1 C 10,6 C 98 % 1004,8 hPa 0,0 l/m 0 min 2 min 114 W/m 25,7 km/h (4 Bft) 95,65 %
10.03.2020 15:02 11,9 C 11,1 C 10,6 C 98 % 1004,9 hPa 0,0 l/m 0 min 0 min 116 W/m 22,5 km/h (4 Bft) 95,74 %
10.03.2020 15:04 11,9 C 11,1 C 10,6 C 98 % 1004,8 hPa 0,0 l/m 0 min 0 min 113 W/m 16,1 km/h (3 Bft) 95,74 %
10.03.2020 15:06 11,9 C 11,1 C 10,6 C 98 % 1004,7 hPa 0,0 l/m 0 min 2 min 107 W/m 35,4 km/h (5 Bft) 95,74 %
10.03.2020 15:08 11,9 C 11,1 C 10,6 C 98 % 1004,8 hPa 0,0 l/m 0 min 2 min 107 W/m 16,1 km/h (3 Bft) 95,74 %
10.03.2020 15:10 11,9 C 11,1 C 10,6 C 98 % 1004,8 hPa 0,0 l/m 0 min 2 min 100 W/m 22,5 km/h (4 Bft) 95,74 %
10.03.2020 15:12 11,9 C 11,1 C 10,6 C 98 % 1004,8 hPa 0,0 l/m 0 min 2 min 97 W/m 16,1 km/h (3 Bft) 95,65 %
10.03.2020 15:14 12,0 C 11,1 C 10,6 C 98 % 1004,8 hPa 0,0 l/m 0 min 2 min 89 W/m 19,3 km/h (3 Bft) 91,49 %
10.03.2020 15:16 12,0 C 11,1 C 10,6 C 98 % 1004,8 hPa 0,0 l/m 0 min 2 min 85 W/m 29,0 km/h (5 Bft) 93,62 %
10.03.2020 15:18 12,0 C 11,1 C 10,6 C 98 % 1004,8 hPa 0,0 l/m 0 min 2 min 91 W/m 22,5 km/h (4 Bft) 95,74 %
10.03.2020 15:20 12,0 C 11,1 C 10,6 C 98 % 1004,9 hPa 0,0 l/m 0 min 2 min 90 W/m 29,0 km/h (5 Bft) 95,74 %
10.03.2020 15:22 12,0 C 11,1 C 10,6 C 99 % 1004,8 hPa 0,0 l/m 0 min 2 min 92 W/m 35,4 km/h (5 Bft) 95,74 %
10.03.2020 15:24 12,0 C 11,1 C 10,6 C 98 % 1004,8 hPa 0,0 l/m 0 min 2 min 87 W/m 16,1 km/h (3 Bft) 97,83 %
10.03.2020 15:26 12,0 C 11,1 C 10,6 C 99 % 1004,8 hPa 0,0 l/m 0 min 2 min 85 W/m 29,0 km/h (5 Bft) 97,87 %
10.03.2020 15:28 12,1 C 11,1 C 10,6 C 99 % 1004,9 hPa 0,0 l/m 0 min 2 min 88 W/m 19,3 km/h (3 Bft) 95,74 %
10.03.2020 15:30 12,1 C 11,1 C 10,6 C 99 % 1004,9 hPa 0,0 l/m 0 min 2 min 81 W/m 19,3 km/h (3 Bft) 100,00 %
10.03.2020 15:32 12,1 C 11,1 C 10,6 C 99 % 1004,9 hPa 0,0 l/m 0 min 2 min 79 W/m 19,3 km/h (3 Bft) 97,87 %
10.03.2020 15:34 12,1 C 11,1 C 10,6 C 99 % 1004,9 hPa 0,0 l/m 0 min 2 min 79 W/m 19,3 km/h (3 Bft) 97,83 %
10.03.2020 15:36 12,1 C 11,1 C 10,6 C 99 % 1004,9 hPa 0,0 l/m 0 min 2 min 84 W/m 16,1 km/h (3 Bft) 97,87 %
10.03.2020 15:38 12,1 C 11,1 C 10,6 C 99 % 1004,9 hPa 0,0 l/m 0 min 2 min 86 W/m 16,1 km/h (3 Bft) 97,87 %
10.03.2020 15:40 12,1 C 11,1 C 10,6 C 99 % 1004,9 hPa 0,0 l/m 0 min 2 min 84 W/m 19,3 km/h (3 Bft) 100,00 %
10.03.2020 15:42 12,1 C 11,1 C 10,6 C 99 % 1004,9 hPa 0,2 l/m 0 min 2 min 75 W/m 45,1 km/h (6 Bft) 95,74 %
10.03.2020 15:44 12,1 C 11,1 C 10,6 C 99 % 1004,9 hPa 0,0 l/m 0 min 2 min 70 W/m 29,0 km/h (5 Bft) 100,00 %
10.03.2020 15:46 12,1 C 11,1 C 10,6 C 99 % 1004,9 hPa 0,0 l/m 0 min 2 min 63 W/m 22,5 km/h (4 Bft) 97,83 %
10.03.2020 15:48 12,1 C 11,1 C 10,6 C 99 % 1004,9 hPa 0,0 l/m 0 min 2 min 63 W/m 25,7 km/h (4 Bft) 97,87 %
10.03.2020 15:50 12,1 C 11,1 C 10,6 C 99 % 1004,9 hPa 0,0 l/m 0 min 2 min 61 W/m 12,9 km/h (3 Bft) 97,87 %
10.03.2020 15:52 12,1 C 11,1 C 10,6 C 99 % 1005,0 hPa 0,0 l/m 0 min 2 min 49 W/m 19,3 km/h (3 Bft) 97,87 %
10.03.2020 15:54 12,1 C 11,1 C 10,6 C 99 % 1005,0 hPa 0,0 l/m 0 min 0 min 43 W/m 25,7 km/h (4 Bft) 95,74 %
10.03.2020 15:56 12,1 C 11,1 C 10,6 C 99 % 1005,0 hPa 0,0 l/m 0 min 0 min 37 W/m 19,3 km/h (3 Bft) 97,87 %
10.03.2020 15:58 12,1 C 11,1 C 10,6 C 99 % 1005,0 hPa 0,0 l/m 0 min 2 min 38 W/m 19,3 km/h (3 Bft) 97,83 %
10.03.2020 16:00 12,1 C 11,1 C 10,6 C 99 % 1005,0 hPa 0,0 l/m 0 min 2 min 40 W/m 19,3 km/h (3 Bft) 97,87 %
10.03.2020 16:02 12,1 C 11,1 C 10,6 C 99 % 1004,9 hPa 0,0 l/m 0 min 2 min 40 W/m 22,5 km/h (4 Bft) 95,74 %
10.03.2020 16:04 12,1 C 11,1 C 10,6 C 99 % 1004,9 hPa 0,0 l/m 0 min 0 min 38 W/m 19,3 km/h (3 Bft) 95,74 %
10.03.2020 16:06 12,1 C 11,1 C 10,6 C 99 % 1005,0 hPa 0,0 l/m 0 min 2 min 41 W/m 19,3 km/h (3 Bft) 97,87 %
10.03.2020 16:08 12,1 C 11,1 C 10,6 C 99 % 1004,9 hPa 0,0 l/m 0 min 0 min 42 W/m 16,1 km/h (3 Bft) 97,87 %
10.03.2020 16:10 12,1 C 11,1 C 10,6 C 99 % 1005,1 hPa 0,0 l/m 0 min 0 min 37 W/m 12,9 km/h (3 Bft) 97,83 %
10.03.2020 16:12 12,1 C 11,1 C 10,6 C 99 % 1005,1 hPa 0,0 l/m 0 min 0 min 32 W/m 22,5 km/h (4 Bft) 97,87 %
10.03.2020 16:14 12,1 C 11,1 C 10,6 C 99 % 1005,1 hPa 0,0 l/m 0 min 0 min 27 W/m 29,0 km/h (5 Bft) 97,87 %
10.03.2020 16:16 12,1 C 11,1 C 10,6 C 99 % 1005,1 hPa 0,0 l/m 0 min 0 min 27 W/m 22,5 km/h (4 Bft) 95,74 %
10.03.2020 16:18 12,1 C 11,1 C 10,6 C 99 % 1005,1 hPa 0,0 l/m 0 min 2 min 28 W/m 22,5 km/h (4 Bft) 95,74 %
10.03.2020 16:20 12,1 C 11,1 C 10,6 C 99 % 1005,1 hPa 0,0 l/m 0 min 2 min 27 W/m 29,0 km/h (5 Bft) 97,87 %
10.03.2020 16:22 12,1 C 11,1 C 10,6 C 99 % 1005,2 hPa 0,0 l/m 0 min 0 min 24 W/m 16,1 km/h (3 Bft) 95,65 %
10.03.2020 16:24 12,1 C 11,1 C 10,6 C 99 % 1005,2 hPa 0,0 l/m 0 min 0 min 24 W/m 25,7 km/h (4 Bft) 97,87 %
10.03.2020 16:26 12,1 C 11,1 C 10,6 C 99 % 1005,3 hPa 0,0 l/m 0 min 0 min 23 W/m 38,6 km/h (5 Bft) 97,87 %
10.03.2020 16:28 12,1 C 11,1 C 10,6 C 99 % 1005,4 hPa 0,0 l/m 0 min 2 min 23 W/m 29,0 km/h (5 Bft) 100,00 %
10.03.2020 16:30 12,1 C 11,1 C 10,6 C 99 % 1005,2 hPa 0,0 l/m 0 min 2 min 25 W/m 22,5 km/h (4 Bft) 97,87 %
10.03.2020 16:32 12,1 C 11,1 C 10,6 C 99 % 1005,2 hPa 0,0 l/m 0 min 2 min 25 W/m 19,3 km/h (3 Bft) 100,00 %
10.03.2020 16:34 12,1 C 11,1 C 10,6 C 99 % 1005,1 hPa 0,0 l/m 0 min 0 min 28 W/m 22,5 km/h (4 Bft) 97,83 %
10.03.2020 16:36 12,1 C 11,1 C 10,6 C 99 % 1005,1 hPa 0,0 l/m 0 min 2 min 27 W/m 22,5 km/h (4 Bft) 100,00 %
10.03.2020 16:38 12,1 C 11,1 C 10,6 C 99 % 1005,1 hPa 0,0 l/m 0 min 2 min 31 W/m 22,5 km/h (4 Bft) 100,00 %
10.03.2020 16:40 12,1 C 11,1 C 10,6 C 99 % 1005,0 hPa 0,0 l/m 0 min 2 min 37 W/m 19,3 km/h (3 Bft) 100,00 %
10.03.2020 16:42 12,1 C 11,1 C 10,6 C 99 % 1005,1 hPa 0,0 l/m 0 min 2 min 36 W/m 22,5 km/h (4 Bft) 97,87 %
10.03.2020 16:44 12,2 C 11,1 C 10,6 C 99 % 1005,1 hPa 0,0 l/m 0 min 2 min 35 W/m 19,3 km/h (3 Bft) 100,00 %
10.03.2020 16:46 12,1 C 11,1 C 10,6 C 99 % 1005,1 hPa 0,0 l/m 0 min 2 min 34 W/m 29,0 km/h (5 Bft) 100,00 %
10.03.2020 16:48 12,2 C 11,1 C 10,6 C 99 % 1005,0 hPa 0,0 l/m 0 min 2 min 34 W/m 19,3 km/h (3 Bft) 100,00 %
10.03.2020 16:50 12,2 C 11,1 C 10,6 C 99 % 1005,0 hPa 0,0 l/m 0 min 2 min 32 W/m 22,5 km/h (4 Bft) 100,00 %
10.03.2020 16:52 12,2 C 11,1 C 10,6 C 99 % 1005,0 hPa 0,0 l/m 0 min 2 min 30 W/m 29,0 km/h (5 Bft) 100,00 %
10.03.2020 16:54 12,2 C 11,1 C 10,6 C 99 % 1005,0 hPa 0,0 l/m 0 min 2 min 29 W/m 22,5 km/h (4 Bft) 100,00 %
10.03.2020 16:56 12,2 C 11,1 C 10,6 C 99 % 1005,1 hPa 0,0 l/m 0 min 2 min 22 W/m 29,0 km/h (5 Bft) 100,00 %
10.03.2020 16:58 12,2 C 11,1 C 10,6 C 99 % 1005,3 hPa 0,0 l/m 0 min 2 min 23 W/m 12,9 km/h (3 Bft) 100,00 %
10.03.2020 17:00 12,2 C 11,1 C 10,6 C 99 % 1005,3 hPa 0,0 l/m 0 min 0 min 21 W/m 3,2 km/h (1 Bft) 95,74 %
10.03.2020 17:02 12,2 C 11,1 C 10,6 C 99 % 1005,4 hPa 0,0 l/m 0 min 0 min 21 W/m 12,9 km/h (3 Bft) 100,00 %
10.03.2020 17:04 12,2 C 11,1 C 10,6 C 99 % 1005,4 hPa 0,0 l/m 0 min 0 min 23 W/m 16,1 km/h (3 Bft) 100,00 %
10.03.2020 17:06 12,2 C 11,1 C 10,6 C 99 % 1005,4 hPa 0,0 l/m 0 min 2 min 21 W/m 16,1 km/h (3 Bft) 100,00 %
10.03.2020 17:08 12,2 C 11,1 C 10,6 C 99 % 1005,2 hPa 0,0 l/m 0 min 2 min 23 W/m 19,3 km/h (3 Bft) 100,00 %
10.03.2020 17:10 12,2 C 11,1 C 10,6 C 99 % 1005,1 hPa 0,0 l/m 0 min 2 min 24 W/m 19,3 km/h (3 Bft) 100,00 %
10.03.2020 17:12 12,2 C 11,1 C 10,6 C 99 % 1005,1 hPa 0,0 l/m 0 min 2 min 18 W/m 16,1 km/h (3 Bft) 100,00 %
10.03.2020 17:14 12,2 C 11,1 C 10,6 C 99 % 1005,1 hPa 0,0 l/m 0 min 2 min 17 W/m 16,1 km/h (3 Bft) 100,00 %
10.03.2020 17:16 12,2 C 11,1 C 10,6 C 99 % 1005,1 hPa 0,0 l/m 0 min 2 min 20 W/m 35,4 km/h (5 Bft) 100,00 %
10.03.2020 17:18 12,2 C 11,1 C 10,6 C 99 % 1005,3 hPa 0,0 l/m 0 min 2 min 13 W/m 16,1 km/h (3 Bft) 100,00 %
10.03.2020 17:20 12,2 C 11,1 C 10,6 C 99 % 1005,2 hPa 0,0 l/m 0 min 2 min 16 W/m 22,5 km/h (4 Bft) 100,00 %
10.03.2020 17:22 12,2 C 11,1 C 10,6 C 99 % 1005,3 hPa 0,0 l/m 0 min 2 min 12 W/m 19,3 km/h (3 Bft) 100,00 %
10.03.2020 17:24 12,2 C 11,1 C 10,6 C 99 % 1005,2 hPa 0,0 l/m 0 min 2 min 12 W/m 16,1 km/h (3 Bft) 100,00 %
10.03.2020 17:26 12,2 C 11,1 C 10,6 C 99 % 1005,2 hPa 0,0 l/m 0 min 2 min 13 W/m 22,5 km/h (4 Bft) 100,00 %
10.03.2020 17:28 12,2 C 11,1 C 10,6 C 99 % 1005,1 hPa 0,0 l/m 0 min 0 min 15 W/m 22,5 km/h (4 Bft) 100,00 %
10.03.2020 17:30 12,2 C 11,1 C 10,6 C 99 % 1004,9 hPa 0,0 l/m 0 min 2 min 19 W/m 22,5 km/h (4 Bft) 100,00 %
10.03.2020 17:32 12,2 C 11,1 C 10,6 C 99 % 1005,2 hPa 0,0 l/m 0 min 2 min 20 W/m 16,1 km/h (3 Bft) 100,00 %
10.03.2020 17:34 12,2 C 11,1 C 10,6 C 99 % 1005,3 hPa 0,0 l/m 0 min 2 min 14 W/m 25,7 km/h (4 Bft) 100,00 %
10.03.2020 17:36 12,2 C 11,1 C 10,6 C 99 % 1005,3 hPa 0,0 l/m 0 min 2 min 11 W/m 12,9 km/h (3 Bft) 97,87 %
10.03.2020 17:38 12,2 C 11,1 C 10,6 C 99 % 1005,3 hPa 0,0 l/m 0 min 0 min 11 W/m 16,1 km/h (3 Bft) 97,87 %
10.03.2020 17:40 12,2 C 11,1 C 10,6 C 99 % 1005,4 hPa 0,0 l/m 0 min 0 min 10 W/m 12,9 km/h (3 Bft) 95,74 %
10.03.2020 17:42 12,2 C 11,1 C 10,6 C 99 % 1005,3 hPa 0,0 l/m 0 min 2 min 7 W/m 12,9 km/h (3 Bft) 97,83 %
10.03.2020 17:44 12,2 C 11,1 C 10,6 C 99 % 1005,3 hPa 0,0 l/m 0 min 2 min 8 W/m 19,3 km/h (3 Bft) 97,87 %
10.03.2020 17:46 12,2 C 11,1 C 10,6 C 99 % 1005,3 hPa 0,0 l/m 0 min 0 min 8 W/m 25,7 km/h (4 Bft) 95,74 %
10.03.2020 17:48 12,2 C 11,1 C 10,6 C 99 % 1005,4 hPa 0,0 l/m 0 min 0 min 7 W/m 16,1 km/h (3 Bft) 95,74 %
10.03.2020 17:50 12,2 C 11,1 C 10,6 C 99 % 1005,4 hPa 0,0 l/m 0 min 0 min 5 W/m 12,9 km/h (3 Bft) 97,87 %
10.03.2020 17:52 12,2 C 11,1 C 10,6 C 99 % 1005,5 hPa 0,0 l/m 0 min 0 min 3 W/m 12,9 km/h (3 Bft) 97,87 %
10.03.2020 17:54 12,2 C 11,1 C 10,6 C 99 % 1005,4 hPa 0,0 l/m 0 min 0 min 0 W/m 22,5 km/h (4 Bft) 95,65 %
10.03.2020 17:56 12,2 C 11,1 C 10,6 C 99 % 1005,4 hPa 0,0 l/m 0 min 0 min 1 W/m 19,3 km/h (3 Bft) 95,74 %
10.03.2020 17:58 12,2 C 11,1 C 10,6 C 99 % 1005,4 hPa 0,0 l/m 0 min 0 min 1 W/m 12,9 km/h (3 Bft) 95,74 %
10.03.2020 18:00 12,2 C 11,1 C 10,6 C 99 % 1005,4 hPa 0,0 l/m 0 min 2 min 1 W/m 25,7 km/h (4 Bft) 95,74 %
10.03.2020 18:02 12,3 C 11,1 C 10,6 C 99 % 1005,4 hPa 0,0 l/m 0 min 0 min 1 W/m 35,4 km/h (5 Bft) 95,83 %
10.03.2020 18:04 12,3 C 11,1 C 10,6 C 99 % 1005,4 hPa 0,0 l/m 0 min 0 min 0 W/m 22,5 km/h (4 Bft) 91,49 %
10.03.2020 18:08 12,3 C 11,1 C 10,6 C 99 % 1005,1 hPa 0,0 l/m 0 min 0 min 0 W/m 25,7 km/h (4 Bft) 93,55 %
10.03.2020 18:10 12,3 C 11,1 C 10,6 C 99 % 1005,1 hPa 0,0 l/m 0 min 0 min 0 W/m 19,3 km/h (3 Bft) 93,62 %
10.03.2020 18:12 12,3 C 11,1 C 10,6 C 99 % 1005,1 hPa 0,0 l/m 0 min 0 min 0 W/m 16,1 km/h (3 Bft) 93,62 %
10.03.2020 18:14 12,3 C 11,1 C 10,6 C 99 % 1005,3 hPa 0,0 l/m 0 min 0 min 0 W/m 19,3 km/h (3 Bft) 95,74 %
10.03.2020 18:16 12,3 C 11,1 C 10,6 C 99 % 1005,3 hPa 0,0 l/m 0 min 2 min 0 W/m 25,7 km/h (4 Bft) 95,74 %
10.03.2020 18:18 12,3 C 11,1 C 10,6 C 99 % 1005,2 hPa 0,0 l/m 0 min 2 min 0 W/m 12,9 km/h (3 Bft) 93,48 %
10.03.2020 18:20 12,3 C 11,1 C 10,6 C 99 % 1005,3 hPa 0,0 l/m 0 min 0 min 0 W/m 19,3 km/h (3 Bft) 91,49 %
10.03.2020 18:22 12,3 C 11,1 C 10,6 C 99 % 1005,3 hPa 0,0 l/m 0 min 0 min 0 W/m 19,3 km/h (3 Bft) 93,62 %
10.03.2020 18:24 12,3 C 11,1 C 10,6 C 99 % 1005,4 hPa 0,0 l/m 0 min 2 min 0 W/m 35,4 km/h (5 Bft) 93,62 %
10.03.2020 18:26 12,3 C 11,1 C 10,6 C 99 % 1005,5 hPa 0,0 l/m 0 min 0 min 0 W/m 29,0 km/h (5 Bft) 93,62 %
10.03.2020 18:28 12,3 C 11,1 C 10,6 C 99 % 1005,6 hPa 0,0 l/m 0 min 2 min 0 W/m 22,5 km/h (4 Bft) 93,62 %
10.03.2020 18:30 12,3 C 11,1 C 10,6 C 99 % 1005,6 hPa 0,0 l/m 0 min 2 min 0 W/m 32,2 km/h (5 Bft) 93,62 %
10.03.2020 18:32 12,4 C 11,1 C 10,6 C 99 % 1005,6 hPa 0,0 l/m 0 min 0 min 0 W/m 16,1 km/h (3 Bft) 95,74 %
10.03.2020 18:34 12,3 C 11,1 C 10,6 C 99 % 1005,7 hPa 0,0 l/m 0 min 0 min 0 W/m 22,5 km/h (4 Bft) 95,74 %
10.03.2020 18:36 12,3 C 11,1 C 10,6 C 99 % 1005,8 hPa 0,0 l/m 0 min 0 min 0 W/m 19,3 km/h (3 Bft) 93,62 %
10.03.2020 18:38 12,3 C 11,1 C 10,6 C 99 % 1005,9 hPa 0,0 l/m 0 min 0 min 0 W/m 29,0 km/h (5 Bft) 93,62 %
10.03.2020 18:40 12,3 C 11,1 C 10,6 C 99 % 1005,8 hPa 0,0 l/m 0 min 0 min 0 W/m 19,3 km/h (3 Bft) 95,65 %
10.03.2020 18:42 12,3 C 11,1 C 10,6 C 99 % 1005,9 hPa 0,0 l/m 0 min 0 min 0 W/m 19,3 km/h (3 Bft) 91,49 %
10.03.2020 18:44 12,3 C 11,1 C 10,6 C 99 % 1005,9 hPa 0,0 l/m 0 min 0 min 0 W/m 19,3 km/h (3 Bft) 91,49 %
10.03.2020 18:46 12,3 C 11,1 C 10,6 C 99 % 1005,9 hPa 0,0 l/m 0 min 2 min 0 W/m 12,9 km/h (3 Bft) 97,87 %
10.03.2020 18:48 12,4 C 11,1 C 10,6 C 99 % 1006,0 hPa 0,0 l/m 0 min 0 min 0 W/m 12,9 km/h (3 Bft) 97,87 %
10.03.2020 18:50 12,4 C 11,1 C 10,6 C 99 % 1006,0 hPa 0,0 l/m 0 min 0 min 0 W/m 22,5 km/h (4 Bft) 97,87 %
10.03.2020 18:52 12,3 C 11,1 C 10,6 C 99 % 1006,0 hPa 0,0 l/m 0 min 0 min 0 W/m 29,0 km/h (5 Bft) 95,65 %
10.03.2020 18:54 12,3 C 11,1 C 10,6 C 99 % 1005,9 hPa 0,0 l/m 0 min 0 min 0 W/m 22,5 km/h (4 Bft) 95,74 %
10.03.2020 18:56 12,4 C 11,1 C 10,6 C 98 % 1005,9 hPa 0,0 l/m 0 min 0 min 0 W/m 12,9 km/h (3 Bft) 97,87 %
10.03.2020 18:58 12,4 C 11,1 C 10,6 C 99 % 1005,9 hPa 0,0 l/m 0 min 0 min 0 W/m 16,1 km/h (3 Bft) 100,00 %
10.03.2020 19:00 12,4 C 11,1 C 10,6 C 99 % 1006,0 hPa 0,0 l/m 0 min 0 min 0 W/m 12,9 km/h (3 Bft) 100,00 %
10.03.2020 19:02 12,3 C 11,1 C 10,6 C 99 % 1006,0 hPa 0,0 l/m 0 min 0 min 0 W/m 25,7 km/h (4 Bft) 100,00 %
10.03.2020 19:04 12,4 C 11,1 C 10,6 C 99 % 1005,9 hPa 0,0 l/m 0 min 0 min 0 W/m 35,4 km/h (5 Bft) 100,00 %
10.03.2020 19:06 12,4 C 11,1 C 10,6 C 99 % 1005,9 hPa 0,0 l/m 0 min 2 min 0 W/m 16,1 km/h (3 Bft) 97,87 %
10.03.2020 19:08 12,4 C 11,1 C 10,6 C 99 % 1006,0 hPa 0,0 l/m 0 min 0 min 0 W/m 19,3 km/h (3 Bft) 100,00 %
10.03.2020 19:10 12,4 C 11,1 C 10,6 C 99 % 1005,9 hPa 0,0 l/m 0 min 2 min 0 W/m 22,5 km/h (4 Bft) 100,00 %
10.03.2020 19:12 12,4 C 11,1 C 10,6 C 99 % 1006,0 hPa 0,0 l/m 0 min 2 min 0 W/m 22,5 km/h (4 Bft) 100,00 %
10.03.2020 19:14 12,4 C 11,1 C 10,6 C 99 % 1006,0 hPa 0,0 l/m 0 min 2 min 0 W/m 22,5 km/h (4 Bft) 97,87 %
10.03.2020 19:16 12,4 C 11,1 C 10,6 C 99 % 1006,0 hPa 0,0 l/m 0 min 2 min 0 W/m 35,4 km/h (5 Bft) 100,00 %
10.03.2020 19:18 12,4 C 11,1 C 10,6 C 99 % 1006,2 hPa 0,0 l/m 0 min 2 min 0 W/m 25,7 km/h (4 Bft) 100,00 %
10.03.2020 19:20 12,4 C 11,1 C 10,6 C 98 % 1006,2 hPa 0,0 l/m 0 min 2 min 0 W/m 16,1 km/h (3 Bft) 100,00 %
10.03.2020 19:22 12,4 C 11,1 C 10,6 C 98 % 1006,2 hPa 0,0 l/m 0 min 2 min 0 W/m 38,6 km/h (5 Bft) 100,00 %
10.03.2020 19:24 12,4 C 11,1 C 10,6 C 98 % 1006,3 hPa 0,0 l/m 0 min 2 min 0 W/m 22,5 km/h (4 Bft) 100,00 %
10.03.2020 19:26 12,4 C 11,1 C 10,6 C 98 % 1006,2 hPa 0,0 l/m 0 min 2 min 0 W/m 19,3 km/h (3 Bft) 100,00 %
10.03.2020 19:28 12,4 C 11,1 C 10,6 C 98 % 1006,3 hPa 0,0 l/m 0 min 2 min 0 W/m 25,7 km/h (4 Bft) 97,56 %
10.03.2020 19:30 12,3 C 11,1 C 10,6 C 98 % 1006,3 hPa 0,0 l/m 0 min 2 min 0 W/m 9,7 km/h (2 Bft) 100,00 %
10.03.2020 19:32 12,4 C 11,1 C 10,6 C 98 % 1006,3 hPa 0,0 l/m 0 min 2 min 0 W/m 22,5 km/h (4 Bft) 97,92 %
10.03.2020 19:34 12,3 C 11,1 C 10,6 C 98 % 1006,2 hPa 0,0 l/m 0 min 2 min 0 W/m 22,5 km/h (4 Bft) 100,00 %
10.03.2020 19:36 12,3 C 11,1 C 10,6 C 98 % 1006,1 hPa 0,2 l/m 0 min 2 min 0 W/m 16,1 km/h (3 Bft) 100,00 %
10.03.2020 19:38 12,3 C 11,1 C 10,6 C 98 % 1006,0 hPa 0,0 l/m 0 min 2 min 0 W/m 29,0 km/h (5 Bft) 100,00 %
10.03.2020 19:40 12,3 C 11,1 C 10,6 C 98 % 1006,2 hPa 0,0 l/m 0 min 2 min 0 W/m 32,2 km/h (5 Bft) 100,00 %
10.03.2020 19:42 12,3 C 11,1 C 10,6 C 98 % 1006,3 hPa 0,0 l/m 0 min 2 min 0 W/m 22,5 km/h (4 Bft) 100,00 %
10.03.2020 19:44 12,3 C 11,1 C 10,6 C 98 % 1006,2 hPa 0,0 l/m 0 min 2 min 0 W/m 29,0 km/h (5 Bft) 97,92 %
10.03.2020 19:46 12,3 C 11,1 C 10,6 C 98 % 1006,3 hPa 0,0 l/m 0 min 2 min 0 W/m 25,7 km/h (4 Bft) 100,00 %
10.03.2020 19:48 12,3 C 11,1 C 10,6 C 98 % 1006,3 hPa 0,0 l/m 0 min 2 min 0 W/m 29,0 km/h (5 Bft) 100,00 %
10.03.2020 19:50 12,3 C 11,1 C 10,6 C 98 % 1006,3 hPa 0,0 l/m 0 min 2 min 0 W/m 25,7 km/h (4 Bft) 100,00 %
10.03.2020 19:52 12,3 C 11,1 C 10,6 C 98 % 1006,4 hPa 0,0 l/m 0 min 2 min 0 W/m 29,0 km/h (5 Bft) 97,87 %
10.03.2020 19:54 12,3 C 11,1 C 10,6 C 98 % 1006,5 hPa 0,0 l/m 0 min 2 min 0 W/m 22,5 km/h (4 Bft) 100,00 %
10.03.2020 19:56 12,3 C 11,1 C 10,6 C 98 % 1006,5 hPa 0,0 l/m 0 min 2 min 0 W/m 22,5 km/h (4 Bft) 100,00 %
10.03.2020 19:58 12,3 C 11,1 C 10,6 C 98 % 1006,5 hPa 0,0 l/m 0 min 2 min 0 W/m 19,3 km/h (3 Bft) 100,00 %
10.03.2020 20:00 12,3 C 11,1 C 10,6 C 98 % 1006,5 hPa 0,0 l/m 0 min 0 min 0 W/m 19,3 km/h (3 Bft) 100,00 %
10.03.2020 20:02 12,3 C 11,1 C 10,6 C 98 % 1006,5 hPa 0,0 l/m 0 min 0 min 0 W/m 29,0 km/h (5 Bft) 97,62 %
10.03.2020 20:04 12,3 C 11,1 C 10,6 C 98 % 1006,7 hPa 0,0 l/m 0 min 2 min 0 W/m 25,7 km/h (4 Bft) 100,00 %
10.03.2020 20:06 12,3 C 11,1 C 10,6 C 98 % 1006,5 hPa 0,0 l/m 0 min 2 min 0 W/m 19,3 km/h (3 Bft) 100,00 %
10.03.2020 20:08 12,3 C 11,1 C 10,6 C 98 % 1006,5 hPa 0,0 l/m 0 min 2 min 0 W/m 22,5 km/h (4 Bft) 100,00 %
10.03.2020 20:10 12,3 C 11,1 C 10,6 C 98 % 1006,5 hPa 0,0 l/m 0 min 2 min 0 W/m 19,3 km/h (3 Bft) 100,00 %
10.03.2020 20:12 12,3 C 10,6 C 10,6 C 98 % 1006,5 hPa 0,0 l/m 0 min 2 min 0 W/m 16,1 km/h (3 Bft) 100,00 %
10.03.2020 20:14 12,3 C 10,6 C 10,6 C 98 % 1006,5 hPa 0,0 l/m 0 min 2 min 0 W/m 25,7 km/h (4 Bft) 100,00 %
10.03.2020 20:16 12,2 C 10,6 C 10,6 C 98 % 1006,6 hPa 0,0 l/m 0 min 2 min 0 W/m 19,3 km/h (3 Bft) 97,87 %
10.03.2020 20:18 12,2 C 10,6 C 10,0 C 98 % 1006,6 hPa 0,0 l/m 0 min 2 min 0 W/m 32,2 km/h (5 Bft) 100,00 %
10.03.2020 20:20 12,2 C 10,6 C 10,0 C 98 % 1006,6 hPa 0,0 l/m 0 min 2 min 0 W/m 19,3 km/h (3 Bft) 97,87 %
10.03.2020 20:22 12,2 C 10,6 C 10,0 C 98 % 1006,6 hPa 0,0 l/m 0 min 2 min 0 W/m 19,3 km/h (3 Bft) 100,00 %
10.03.2020 20:24 12,2 C 10,6 C 10,0 C 98 % 1006,5 hPa 0,0 l/m 0 min 2 min 0 W/m 25,7 km/h (4 Bft) 100,00 %
10.03.2020 20:26 12,2 C 10,6 C 10,0 C 98 % 1006,5 hPa 0,0 l/m 0 min 2 min 0 W/m 16,1 km/h (3 Bft) 100,00 %
10.03.2020 20:28 12,2 C 10,6 C 10,0 C 98 % 1006,5 hPa 0,0 l/m 0 min 2 min 0 W/m 12,9 km/h (3 Bft) 100,00 %
10.03.2020 20:30 12,2 C 10,6 C 10,0 C 97 % 1006,6 hPa 0,0 l/m 0 min 2 min 0 W/m 25,7 km/h (4 Bft) 100,00 %
10.03.2020 20:32 12,2 C 10,6 C 10,0 C 97 % 1006,6 hPa 0,0 l/m 0 min 2 min 0 W/m 32,2 km/h (5 Bft) 100,00 %
10.03.2020 20:34 12,2 C 10,6 C 10,0 C 97 % 1006,6 hPa 0,0 l/m 0 min 2 min 0 W/m 19,3 km/h (3 Bft) 97,87 %
10.03.2020 20:36 12,2 C 10,6 C 10,0 C 97 % 1006,7 hPa 0,0 l/m 0 min 2 min 0 W/m 29,0 km/h (5 Bft) 100,00 %
10.03.2020 20:38 12,2 C 10,6 C 10,0 C 97 % 1006,7 hPa 0,0 l/m 0 min 2 min 0 W/m 29,0 km/h (5 Bft) 97,87 %
10.03.2020 20:40 12,2 C 10,6 C 10,0 C 98 % 1006,7 hPa 0,0 l/m 0 min 2 min 0 W/m 25,7 km/h (4 Bft) 97,87 %
10.03.2020 20:42 12,2 C 10,6 C 10,0 C 97 % 1006,6 hPa 0,0 l/m 0 min 2 min 0 W/m 19,3 km/h (3 Bft) 100,00 %
10.03.2020 20:44 12,2 C 10,6 C 10,0 C 97 % 1006,6 hPa 0,0 l/m 0 min 2 min 0 W/m 29,0 km/h (5 Bft) 97,87 %
10.03.2020 20:46 12,2 C 10,6 C 10,0 C 97 % 1006,6 hPa 0,0 l/m 0 min 2 min 0 W/m 32,2 km/h (5 Bft) 97,87 %
10.03.2020 20:48 12,2 C 10,6 C 10,0 C 97 % 1006,6 hPa 0,0 l/m 0 min 2 min 0 W/m 29,0 km/h (5 Bft) 100,00 %
10.03.2020 20:50 12,2 C 10,6 C 10,0 C 97 % 1006,6 hPa 0,0 l/m 0 min 0 min 0 W/m 25,7 km/h (4 Bft) 97,87 %
10.03.2020 20:52 12,2 C 10,6 C 10,0 C 97 % 1006,6 hPa 0,0 l/m 0 min 0 min 0 W/m 25,7 km/h (4 Bft) 95,74 %
10.03.2020 20:54 12,2 C 10,6 C 10,0 C 97 % 1006,5 hPa 0,0 l/m 0 min 0 min 0 W/m 22,5 km/h (4 Bft) 91,49 %
10.03.2020 20:56 12,2 C 10,6 C 10,0 C 97 % 1006,6 hPa 0,0 l/m 0 min 0 min 0 W/m 25,7 km/h (4 Bft) 95,74 %
10.03.2020 20:58 12,2 C 10,6 C 10,0 C 97 % 1006,6 hPa 0,0 l/m 0 min 0 min 0 W/m 16,1 km/h (3 Bft) 93,62 %
10.03.2020 21:00 12,2 C 11,1 C 10,6 C 97 % 1006,6 hPa 0,0 l/m 0 min 0 min 0 W/m 25,7 km/h (4 Bft) 93,48 %
10.03.2020 21:02 12,2 C 11,1 C 10,6 C 97 % 1006,7 hPa 0,0 l/m 0 min 0 min 0 W/m 22,5 km/h (4 Bft) 93,62 %
10.03.2020 21:04 12,2 C 11,1 C 10,6 C 97 % 1006,7 hPa 0,0 l/m 0 min 0 min 0 W/m 22,5 km/h (4 Bft) 93,62 %
10.03.2020 21:06 12,2 C 11,1 C 10,6 C 97 % 1006,7 hPa 0,0 l/m 0 min 0 min 0 W/m 29,0 km/h (5 Bft) 91,49 %
10.03.2020 21:08 12,2 C 11,1 C 10,6 C 97 % 1006,6 hPa 0,0 l/m 0 min 0 min 0 W/m 29,0 km/h (5 Bft) 93,62 %
10.03.2020 21:10 12,2 C 11,1 C 10,6 C 97 % 1006,7 hPa 0,0 l/m 0 min 0 min 0 W/m 22,5 km/h (4 Bft) 93,62 %
10.03.2020 21:12 12,2 C 11,1 C 10,6 C 97 % 1006,6 hPa 0,0 l/m 0 min 0 min 0 W/m 22,5 km/h (4 Bft) 91,30 %
10.03.2020 21:14 12,2 C 11,1 C 10,6 C 97 % 1006,6 hPa 0,0 l/m 0 min 0 min 0 W/m 22,5 km/h (4 Bft) 93,62 %
10.03.2020 21:16 12,2 C 11,1 C 10,6 C 97 % 1006,5 hPa 0,0 l/m 0 min 0 min 0 W/m 25,7 km/h (4 Bft) 93,62 %
10.03.2020 21:18 12,2 C 11,1 C 10,6 C 97 % 1006,5 hPa 0,0 l/m 0 min 0 min 0 W/m 22,5 km/h (4 Bft) 93,62 %
10.03.2020 21:20 12,2 C 11,1 C 10,6 C 97 % 1006,6 hPa 0,0 l/m 0 min 0 min 0 W/m 25,7 km/h (4 Bft) 91,49 %
10.03.2020 21:22 12,2 C 11,1 C 10,6 C 97 % 1006,6 hPa 0,0 l/m 0 min 0 min 0 W/m 35,4 km/h (5 Bft) 93,48 %
10.03.2020 21:24 12,3 C 11,1 C 10,6 C 97 % 1006,7 hPa 0,0 l/m 0 min 0 min 0 W/m 35,4 km/h (5 Bft) 91,49 %
10.03.2020 21:26 12,3 C 11,1 C 10,6 C 97 % 1006,6 hPa 0,0 l/m 0 min 0 min 0 W/m 25,7 km/h (4 Bft) 93,62 %
10.03.2020 21:28 12,3 C 11,1 C 10,6 C 96 % 1006,7 hPa 0,0 l/m 0 min 0 min 0 W/m 38,6 km/h (5 Bft) 93,62 %
10.03.2020 21:30 12,3 C 11,1 C 10,6 C 96 % 1006,7 hPa 0,0 l/m 0 min 0 min 0 W/m 29,0 km/h (5 Bft) 91,49 %
10.03.2020 21:32 12,3 C 11,1 C 10,6 C 96 % 1006,7 hPa 0,0 l/m 0 min 0 min 0 W/m 19,3 km/h (3 Bft) 95,74 %
10.03.2020 21:34 12,4 C 11,1 C 10,6 C 96 % 1006,7 hPa 0,0 l/m 0 min 0 min 0 W/m 19,3 km/h (3 Bft) 97,83 %
10.03.2020 21:36 12,4 C 11,1 C 10,6 C 96 % 1006,7 hPa 0,0 l/m 0 min 0 min 0 W/m 32,2 km/h (5 Bft) 95,74 %
10.03.2020 21:38 12,4 C 11,1 C 10,6 C 96 % 1006,6 hPa 0,0 l/m 0 min 0 min 0 W/m 19,3 km/h (3 Bft) 93,62 %
10.03.2020 21:40 12,4 C 11,1 C 10,6 C 96 % 1006,8 hPa 0,0 l/m 0 min 0 min 0 W/m 35,4 km/h (5 Bft) 95,74 %
10.03.2020 21:42 12,4 C 11,1 C 10,6 C 95 % 1006,8 hPa 0,0 l/m 0 min 2 min 0 W/m 22,5 km/h (4 Bft) 95,74 %
10.03.2020 21:44 12,4 C 11,1 C 10,6 C 95 % 1006,8 hPa 0,0 l/m 0 min 0 min 0 W/m 22,5 km/h (4 Bft) 95,74 %
10.03.2020 21:46 12,5 C 11,1 C 10,6 C 95 % 1006,8 hPa 0,0 l/m 0 min 0 min 0 W/m 32,2 km/h (5 Bft) 91,49 %
10.03.2020 21:48 12,5 C 11,1 C 10,6 C 95 % 1006,8 hPa 0,0 l/m 0 min 0 min 0 W/m 19,3 km/h (3 Bft) 60,87 %
10.03.2020 21:50 12,5 C 11,1 C 10,6 C 95 % 1006,8 hPa 0,0 l/m 0 min 0 min 0 W/m 32,2 km/h (5 Bft) 100,00 %
10.03.2020 21:52 12,5 C 11,1 C 10,6 C 95 % 1006,8 hPa 0,0 l/m 0 min 2 min 0 W/m 22,5 km/h (4 Bft) 97,87 %
10.03.2020 21:54 12,6 C 11,1 C 10,6 C 95 % 1006,9 hPa 0,0 l/m 0 min 0 min 0 W/m 35,4 km/h (5 Bft) 100,00 %
10.03.2020 21:56 12,6 C 11,1 C 10,6 C 95 % 1007,0 hPa 0,0 l/m 0 min 0 min 0 W/m 25,7 km/h (4 Bft) 100,00 %
10.03.2020 21:58 12,6 C 11,1 C 10,6 C 95 % 1007,0 hPa 0,0 l/m 0 min 0 min 0 W/m 29,0 km/h (5 Bft) 95,65 %
10.03.2020 22:00 12,6 C 11,1 C 10,6 C 94 % 1007,0 hPa 0,0 l/m 0 min 0 min 0 W/m 25,7 km/h (4 Bft) 100,00 %
10.03.2020 22:02 12,6 C 11,1 C 10,6 C 94 % 1006,9 hPa 0,0 l/m 0 min 0 min 0 W/m 29,0 km/h (5 Bft) 100,00 %
10.03.2020 22:04 12,6 C 11,1 C 10,6 C 94 % 1006,9 hPa 0,0 l/m 0 min 0 min 0 W/m 25,7 km/h (4 Bft) 100,00 %
10.03.2020 22:06 12,6 C 11,1 C 10,6 C 94 % 1006,9 hPa 0,0 l/m 0 min 0 min 0 W/m 19,3 km/h (3 Bft) 100,00 %
10.03.2020 22:08 12,6 C 11,1 C 10,6 C 94 % 1007,0 hPa 0,0 l/m 0 min 0 min 0 W/m 35,4 km/h (5 Bft) 97,87 %
10.03.2020 22:10 12,6 C 11,7 C 10,6 C 94 % 1006,9 hPa 0,0 l/m 0 min 0 min 0 W/m 32,2 km/h (5 Bft) 97,83 %
10.03.2020 22:12 12,6 C 11,7 C 10,6 C 94 % 1006,9 hPa 0,0 l/m 0 min 0 min 0 W/m 25,7 km/h (4 Bft) 100,00 %
10.03.2020 22:14 12,6 C 11,7 C 11,1 C 94 % 1006,9 hPa 0,0 l/m 0 min 0 min 0 W/m 19,3 km/h (3 Bft) 97,87 %
10.03.2020 22:16 12,6 C 11,7 C 11,1 C 93 % 1007,0 hPa 0,0 l/m 0 min 0 min 0 W/m 16,1 km/h (3 Bft) 100,00 %
10.03.2020 22:18 12,6 C 11,1 C 10,6 C 93 % 1007,1 hPa 0,0 l/m 0 min 0 min 0 W/m 19,3 km/h (3 Bft) 100,00 %
10.03.2020 22:20 12,6 C 11,1 C 10,6 C 93 % 1007,1 hPa 0,0 l/m 0 min 0 min 0 W/m 22,5 km/h (4 Bft) 100,00 %
10.03.2020 22:22 12,6 C 11,1 C 10,6 C 93 % 1007,0 hPa 0,0 l/m 0 min 0 min 0 W/m 22,5 km/h (4 Bft) 97,83 %
10.03.2020 22:24 12,6 C 11,7 C 10,6 C 93 % 1007,1 hPa 0,0 l/m 0 min 0 min 0 W/m 35,4 km/h (5 Bft) 100,00 %
10.03.2020 22:26 12,6 C 11,7 C 10,6 C 93 % 1007,1 hPa 0,0 l/m 0 min 0 min 0 W/m 19,3 km/h (3 Bft) 100,00 %
10.03.2020 22:28 12,6 C 11,7 C 11,1 C 93 % 1007,2 hPa 0,0 l/m 0 min 0 min 0 W/m 22,5 km/h (4 Bft) 97,87 %
10.03.2020 22:30 12,6 C 11,7 C 11,1 C 93 % 1007,3 hPa 0,0 l/m 0 min 0 min 0 W/m 22,5 km/h (4 Bft) 97,87 %
10.03.2020 22:32 12,6 C 11,7 C 11,1 C 93 % 1007,3 hPa 0,0 l/m 0 min 0 min 0 W/m 22,5 km/h (4 Bft) 100,00 %
10.03.2020 22:34 12,6 C 11,7 C 11,1 C 93 % 1007,4 hPa 0,0 l/m 0 min 2 min 0 W/m 29,0 km/h (5 Bft) 97,87 %
10.03.2020 22:36 12,6 C 11,7 C 11,1 C 93 % 1007,3 hPa 0,0 l/m 0 min 0 min 0 W/m 32,2 km/h (5 Bft) 100,00 %
10.03.2020 22:38 12,6 C 11,7 C 11,1 C 93 % 1007,3 hPa 0,0 l/m 0 min 0 min 0 W/m 25,7 km/h (4 Bft) 100,00 %
10.03.2020 22:40 12,6 C 11,7 C 11,1 C 93 % 1007,2 hPa 0,0 l/m 0 min 2 min 0 W/m 32,2 km/h (5 Bft) 100,00 %
10.03.2020 22:42 12,6 C 11,7 C 11,1 C 93 % 1007,2 hPa 0,0 l/m 0 min 2 min 0 W/m 29,0 km/h (5 Bft) 97,87 %
10.03.2020 22:44 12,6 C 11,7 C 11,1 C 93 % 1007,3 hPa 0,0 l/m 0 min 0 min 0 W/m 29,0 km/h (5 Bft) 100,00 %
10.03.2020 22:46 12,6 C 11,7 C 10,6 C 93 % 1007,2 hPa 0,0 l/m 0 min 2 min 0 W/m 48,3 km/h (6 Bft) 100,00 %
10.03.2020 22:48 12,6 C 11,7 C 10,6 C 93 % 1007,3 hPa 0,0 l/m 0 min 2 min 0 W/m 12,9 km/h (3 Bft) 100,00 %
10.03.2020 22:50 12,6 C 11,7 C 10,6 C 93 % 1007,3 hPa 0,0 l/m 0 min 0 min 0 W/m 25,7 km/h (4 Bft) 100,00 %
10.03.2020 22:52 12,6 C 11,7 C 10,6 C 93 % 1007,3 hPa 0,0 l/m 0 min 0 min 0 W/m 35,4 km/h (5 Bft) 100,00 %
10.03.2020 22:54 12,6 C 11,7 C 11,1 C 93 % 1007,5 hPa 0,0 l/m 0 min 0 min 0 W/m 22,5 km/h (4 Bft) 100,00 %
10.03.2020 22:56 12,6 C 11,7 C 11,1 C 93 % 1007,4 hPa 0,0 l/m 0 min 2 min 0 W/m 19,3 km/h (3 Bft) 97,83 %
10.03.2020 22:58 12,6 C 11,7 C 11,1 C 93 % 1007,5 hPa 0,0 l/m 0 min 0 min 0 W/m 35,4 km/h (5 Bft) 100,00 %
10.03.2020 23:00 12,6 C 12,2 C 11,1 C 93 % 1007,5 hPa 0,0 l/m 0 min 0 min 0 W/m 29,0 km/h (5 Bft) 100,00 %
10.03.2020 23:02 12,6 C 11,7 C 11,1 C 93 % 1007,3 hPa 0,0 l/m 0 min 0 min 0 W/m 19,3 km/h (3 Bft) 100,00 %
10.03.2020 23:04 12,6 C 12,2 C 11,1 C 93 % 1007,4 hPa 0,0 l/m 0 min 0 min 0 W/m 29,0 km/h (5 Bft) 100,00 %
10.03.2020 23:06 12,6 C 12,2 C 11,1 C 93 % 1007,4 hPa 0,0 l/m 0 min 0 min 0 W/m 19,3 km/h (3 Bft) 100,00 %
10.03.2020 23:08 12,6 C 11,7 C 11,1 C 93 % 1007,5 hPa 0,0 l/m 0 min 0 min 0 W/m 29,0 km/h (5 Bft) 97,83 %
10.03.2020 23:10 12,6 C 11,7 C 11,1 C 93 % 1007,3 hPa 0,0 l/m 0 min 0 min 0 W/m 35,4 km/h (5 Bft) 100,00 %
10.03.2020 23:12 12,6 C 11,7 C 11,1 C 93 % 1007,5 hPa 0,0 l/m 0 min 0 min 0 W/m 19,3 km/h (3 Bft) 100,00 %
10.03.2020 23:14 12,7 C 11,7 C 11,1 C 93 % 1007,5 hPa 0,0 l/m 0 min 0 min 0 W/m 22,5 km/h (4 Bft) 100,00 %
10.03.2020 23:16 12,7 C 12,2 C 11,1 C 93 % 1007,5 hPa 0,0 l/m 0 min 0 min 0 W/m 35,4 km/h (5 Bft) 97,87 %
10.03.2020 23:18 12,7 C 12,2 C 11,1 C 93 % 1007,5 hPa 0,0 l/m 0 min 0 min 0 W/m 41,8 km/h (6 Bft) 100,00 %
10.03.2020 23:20 12,7 C 11,7 C 11,1 C 93 % 1007,5 hPa 0,0 l/m 0 min 0 min 0 W/m 29,0 km/h (5 Bft) 100,00 %
10.03.2020 23:22 12,7 C 11,7 C 11,1 C 93 % 1007,4 hPa 0,0 l/m 0 min 2 min 0 W/m 25,7 km/h (4 Bft) 100,00 %
10.03.2020 23:24 12,7 C 11,7 C 11,1 C 93 % 1007,5 hPa 0,0 l/m 0 min 0 min 0 W/m 19,3 km/h (3 Bft) 97,87 %
10.03.2020 23:26 12,7 C 11,7 C 11,1 C 93 % 1007,4 hPa 0,0 l/m 0 min 0 min 0 W/m 32,2 km/h (5 Bft) 97,87 %
10.03.2020 23:28 12,7 C 11,7 C 11,1 C 93 % 1007,5 hPa 0,0 l/m 0 min 0 min 0 W/m 25,7 km/h (4 Bft) 97,87 %
10.03.2020 23:30 12,7 C 11,7 C 11,1 C 93 % 1007,5 hPa 0,0 l/m 0 min 0 min 0 W/m 19,3 km/h (3 Bft) 97,83 %
10.03.2020 23:32 12,7 C 11,7 C 11,1 C 93 % 1007,6 hPa 0,0 l/m 0 min 0 min 0 W/m 16,1 km/h (3 Bft) 95,74 %
10.03.2020 23:34 12,6 C 11,7 C 11,1 C 93 % 1007,7 hPa 0,0 l/m 0 min 0 min 0 W/m 19,3 km/h (3 Bft) 97,87 %
10.03.2020 23:36 12,6 C 11,7 C 11,1 C 93 % 1007,7 hPa 0,0 l/m 0 min 0 min 0 W/m 22,5 km/h (4 Bft) 97,87 %
10.03.2020 23:38 12,6 C 11,7 C 11,1 C 93 % 1007,7 hPa 0,0 l/m 0 min 0 min 0 W/m 25,7 km/h (4 Bft) 97,87 %
10.03.2020 23:40 12,6 C 11,7 C 11,1 C 93 % 1007,7 hPa 0,0 l/m 0 min 2 min 0 W/m 22,5 km/h (4 Bft) 95,74 %
10.03.2020 23:42 12,6 C 11,7 C 10,6 C 93 % 1007,8 hPa 0,0 l/m 0 min 0 min 0 W/m 29,0 km/h (5 Bft) 97,83 %
10.03.2020 23:44 12,6 C 11,7 C 10,6 C 93 % 1007,7 hPa 0,0 l/m 0 min 2 min 0 W/m 22,5 km/h (4 Bft) 97,87 %
10.03.2020 23:46 12,6 C 11,7 C 10,6 C 93 % 1008,0 hPa 0,0 l/m 0 min 2 min 0 W/m 22,5 km/h (4 Bft) 97,87 %
10.03.2020 23:48 12,6 C 11,7 C 10,6 C 93 % 1007,9 hPa 0,0 l/m 0 min 2 min 0 W/m 19,3 km/h (3 Bft) 93,62 %
10.03.2020 23:50 12,6 C 11,1 C 10,6 C 93 % 1007,9 hPa 0,0 l/m 0 min 2 min 0 W/m 25,7 km/h (4 Bft) 97,87 %
10.03.2020 23:52 12,6 C 11,1 C 10,6 C 93 % 1007,9 hPa 0,0 l/m 0 min 2 min 0 W/m 29,0 km/h (5 Bft) 95,74 %
10.03.2020 23:54 12,6 C 11,1 C 10,6 C 94 % 1007,8 hPa 0,0 l/m 0 min 2 min 0 W/m 25,7 km/h (4 Bft) 97,83 %
10.03.2020 23:56 12,6 C 10,6 C 10,6 C 94 % 1007,8 hPa 0,2 l/m 0 min 2 min 0 W/m 22,5 km/h (4 Bft) 95,74 %
10.03.2020 23:58 12,6 C 10,6 C 10,0 C 94 % 1007,9 hPa 0,0 l/m 0 min 2 min 0 W/m 22,5 km/h (4 Bft) 93,62 %
_ Min-Zeit 04:36 03:54 04:28 00:12 15:06 - - - - 09:46 02:38
Minimum _ 5,9 C 4,4 C 3,9 C 79 % 1004,7 hPa - - - - 0,0 km/h (0 Bft) 51,43 %
_ Max-Zeit 23:14 23:00 22:14 15:22 00:00 03:32 00:00 04:07 14:48 03:28 00:22
Maximum _ 12,7 C 12,2 C 11,1 C 99 % 1012,8 hPa 0,4 l/m 0 min 5 min 160 W/m 61,2 km/h
S-SO (7 Bft)
100,00 %
Durchschnitt _ 9,8 C 8,7 C 8,2 C 95 % 1006,7 hPa #7,8 l/m #0 min. #18:16 h 69 W/m 24,3 km/h (4 Bft) 97,16 %
© 2020 W. Hausmann